Wetterdaten: Dienstag, 24.12.2013
Datum Zeit Temp. Aussen +5cm Feuchte Auss Luftdruck Regen Sonnenschein Regendauer UV Solar Windben
24.12.2013 00:00 11,7 C 10,0 C 71 % 999,3 hPa 0,0 l/m 0 min 0 min 0,0 UV-I 0 W/m 38,6 km/h (5 Bft)
24.12.2013 00:02 11,7 C 10,0 C 71 % 999,2 hPa 0,0 l/m 0 min 0 min 0,0 UV-I 0 W/m 25,7 km/h (4 Bft)
24.12.2013 00:04 11,7 C 10,0 C 71 % 999,2 hPa 0,0 l/m 0 min 0 min 0,0 UV-I 0 W/m 28,3 km/h (4 Bft)
24.12.2013 00:06 11,7 C 10,0 C 71 % 999,2 hPa 0,0 l/m 0 min 0 min 0,0 UV-I 0 W/m 33,5 km/h (5 Bft)
24.12.2013 00:08 11,7 C 9,4 C 71 % 999,2 hPa 0,0 l/m 0 min 0 min 0,0 UV-I 0 W/m 20,6 km/h (4 Bft)
24.12.2013 00:10 11,7 C 9,4 C 71 % 999,1 hPa 0,0 l/m 0 min 0 min 0,0 UV-I 0 W/m 33,5 km/h (5 Bft)
24.12.2013 00:12 11,7 C 9,4 C 71 % 998,9 hPa 0,0 l/m 0 min 0 min 0,0 UV-I 0 W/m 28,3 km/h (4 Bft)
24.12.2013 00:14 11,7 C 9,4 C 71 % 998,9 hPa 0,0 l/m 0 min 2 min 0,0 UV-I 0 W/m 30,9 km/h (5 Bft)
24.12.2013 00:16 11,7 C 9,4 C 71 % 998,9 hPa 0,0 l/m 0 min 2 min 0,0 UV-I 0 W/m 46,3 km/h (6 Bft)
24.12.2013 00:18 11,7 C 9,4 C 71 % 999,0 hPa 0,0 l/m 0 min 2 min 0,0 UV-I 0 W/m 38,6 km/h (5 Bft)
24.12.2013 00:20 11,7 C 9,4 C 71 % 999,0 hPa 0,0 l/m 0 min 0 min 0,0 UV-I 0 W/m 33,5 km/h (5 Bft)
24.12.2013 00:22 11,7 C 9,4 C 71 % 999,0 hPa 0,0 l/m 0 min 2 min 0,0 UV-I 0 W/m 36,0 km/h (5 Bft)
24.12.2013 00:24 11,7 C 9,4 C 71 % 998,8 hPa 0,0 l/m 0 min 0 min 0,0 UV-I 0 W/m 38,6 km/h (5 Bft)
24.12.2013 00:26 11,6 C 9,4 C 72 % 998,9 hPa 0,0 l/m 0 min 0 min 0,0 UV-I 0 W/m 23,2 km/h (4 Bft)
24.12.2013 00:28 11,6 C 9,4 C 72 % 998,8 hPa 0,0 l/m 0 min 0 min 0,0 UV-I 0 W/m 20,6 km/h (4 Bft)
24.12.2013 00:30 11,6 C 9,4 C 72 % 999,1 hPa 0,0 l/m 0 min 0 min 0,0 UV-I 0 W/m 20,6 km/h (4 Bft)
24.12.2013 00:32 11,6 C 9,4 C 72 % 998,8 hPa 0,0 l/m 0 min 0 min 0,0 UV-I 0 W/m 38,6 km/h (5 Bft)
24.12.2013 00:34 11,6 C 9,4 C 72 % 998,7 hPa 0,0 l/m 0 min 2 min 0,0 UV-I 0 W/m 28,3 km/h (4 Bft)
24.12.2013 00:36 11,6 C 9,4 C 72 % 998,6 hPa 0,0 l/m 0 min 2 min 0,0 UV-I 0 W/m 46,3 km/h (6 Bft)
24.12.2013 00:38 11,6 C 9,4 C 72 % 998,7 hPa 0,0 l/m 0 min 0 min 0,0 UV-I 0 W/m 15,4 km/h (3 Bft)
24.12.2013 00:40 11,5 C 9,4 C 72 % 998,7 hPa 0,0 l/m 0 min 0 min 0,0 UV-I 0 W/m 18,0 km/h (3 Bft)
24.12.2013 00:42 11,5 C 9,4 C 72 % 998,5 hPa 0,0 l/m 0 min 0 min 0,0 UV-I 0 W/m 25,7 km/h (4 Bft)
24.12.2013 00:44 11,5 C 9,4 C 72 % 998,5 hPa 0,0 l/m 0 min 0 min 0,0 UV-I 0 W/m 30,9 km/h (5 Bft)
24.12.2013 00:46 11,5 C 9,4 C 72 % 998,6 hPa 0,0 l/m 0 min 0 min 0,0 UV-I 0 W/m 25,7 km/h (4 Bft)
24.12.2013 00:48 11,5 C 9,4 C 72 % 998,5 hPa 0,0 l/m 0 min 0 min 0,0 UV-I 0 W/m 38,6 km/h (5 Bft)
24.12.2013 00:50 11,5 C 9,4 C 72 % 998,5 hPa 0,0 l/m 0 min 0 min 0,0 UV-I 0 W/m 30,9 km/h (5 Bft)
24.12.2013 00:52 11,5 C 9,4 C 72 % 998,4 hPa 0,0 l/m 0 min 0 min 0,0 UV-I 0 W/m 23,2 km/h (4 Bft)
24.12.2013 00:54 11,5 C 9,4 C 72 % 998,5 hPa 0,0 l/m 0 min 0 min 0,0 UV-I 0 W/m 23,2 km/h (4 Bft)
24.12.2013 00:56 11,5 C 9,4 C 72 % 998,4 hPa 0,0 l/m 0 min 0 min 0,0 UV-I 0 W/m 33,5 km/h (5 Bft)
24.12.2013 00:58 11,4 C 9,4 C 72 % 998,3 hPa 0,0 l/m 0 min 0 min 0,0 UV-I 0 W/m 25,7 km/h (4 Bft)
24.12.2013 01:00 11,4 C 9,4 C 72 % 998,3 hPa 0,0 l/m 0 min 0 min 0,0 UV-I 0 W/m 36,0 km/h (5 Bft)
24.12.2013 01:02 11,4 C 9,4 C 72 % 998,3 hPa 0,0 l/m 0 min 0 min 0,0 UV-I 0 W/m 28,3 km/h (4 Bft)
24.12.2013 01:04 11,4 C 9,4 C 72 % 998,3 hPa 0,0 l/m 0 min 0 min 0,0 UV-I 0 W/m 20,6 km/h (4 Bft)
24.12.2013 01:06 11,4 C 9,4 C 72 % 998,3 hPa 0,0 l/m 0 min 0 min 0,0 UV-I 0 W/m 20,6 km/h (4 Bft)
24.12.2013 01:08 11,4 C 9,4 C 72 % 998,2 hPa 0,0 l/m 0 min 0 min 0,0 UV-I 0 W/m 25,7 km/h (4 Bft)
24.12.2013 01:10 11,4 C 9,4 C 72 % 998,3 hPa 0,0 l/m 0 min 0 min 0,0 UV-I 0 W/m 28,3 km/h (4 Bft)
24.12.2013 01:12 11,4 C 9,4 C 72 % 998,3 hPa 0,0 l/m 0 min 0 min 0,0 UV-I 0 W/m 23,2 km/h (4 Bft)
24.12.2013 01:14 11,4 C 9,4 C 72 % 998,2 hPa 0,0 l/m 0 min 0 min 0,0 UV-I 0 W/m 43,8 km/h (6 Bft)
24.12.2013 01:16 11,4 C 9,4 C 72 % 998,1 hPa 0,0 l/m 0 min 0 min 0,0 UV-I 0 W/m 30,9 km/h (5 Bft)
24.12.2013 01:18 11,4 C 9,4 C 72 % 998,1 hPa 0,0 l/m 0 min 0 min 0,0 UV-I 0 W/m 28,3 km/h (4 Bft)
24.12.2013 01:20 11,4 C 9,4 C 72 % 998,1 hPa 0,0 l/m 0 min 0 min 0,0 UV-I 0 W/m 25,7 km/h (4 Bft)
24.12.2013 01:22 11,4 C 9,4 C 72 % 998,1 hPa 0,0 l/m 0 min 0 min 0,0 UV-I 0 W/m 36,0 km/h (5 Bft)
24.12.2013 01:24 11,4 C 9,4 C 72 % 998,0 hPa 0,0 l/m 0 min 0 min 0,0 UV-I 0 W/m 20,6 km/h (4 Bft)
24.12.2013 01:26 11,4 C 9,4 C 72 % 998,0 hPa 0,0 l/m 0 min 0 min 0,0 UV-I 0 W/m 25,7 km/h (4 Bft)
24.12.2013 01:28 11,4 C 9,4 C 72 % 998,0 hPa 0,0 l/m 0 min 0 min 0,0 UV-I 0 W/m 28,3 km/h (4 Bft)
24.12.2013 01:30 11,4 C 9,4 C 72 % 997,9 hPa 0,0 l/m 0 min 0 min 0,0 UV-I 0 W/m 38,6 km/h (5 Bft)
24.12.2013 01:32 11,4 C 9,4 C 72 % 997,8 hPa 0,0 l/m 0 min 0 min 0,0 UV-I 0 W/m 33,5 km/h (5 Bft)
24.12.2013 01:34 11,4 C 9,4 C 72 % 997,9 hPa 0,0 l/m 0 min 0 min 0,0 UV-I 0 W/m 18,0 km/h (3 Bft)
24.12.2013 01:36 11,3 C 9,4 C 72 % 997,9 hPa 0,0 l/m 0 min 0 min 0,0 UV-I 0 W/m 54,1 km/h (7 Bft)
24.12.2013 01:38 11,3 C 9,4 C 72 % 997,9 hPa 0,0 l/m 0 min 0 min 0,0 UV-I 0 W/m 23,2 km/h (4 Bft)
24.12.2013 01:40 11,3 C 9,4 C 72 % 997,7 hPa 0,0 l/m 0 min 0 min 0,0 UV-I 0 W/m 25,7 km/h (4 Bft)
24.12.2013 01:42 11,3 C 9,4 C 72 % 997,7 hPa 0,0 l/m 0 min 0 min 0,0 UV-I 0 W/m 36,0 km/h (5 Bft)
24.12.2013 01:44 11,3 C 9,4 C 72 % 997,7 hPa 0,0 l/m 0 min 0 min 0,0 UV-I 0 W/m 18,0 km/h (3 Bft)
24.12.2013 01:46 11,3 C 9,4 C 72 % 997,6 hPa 0,0 l/m 0 min 0 min 0,0 UV-I 0 W/m 28,3 km/h (4 Bft)
24.12.2013 01:48 11,3 C 9,4 C 72 % 997,6 hPa 0,0 l/m 0 min 0 min 0,0 UV-I 0 W/m 23,2 km/h (4 Bft)
24.12.2013 01:50 11,3 C 9,4 C 72 % 997,6 hPa 0,0 l/m 0 min 0 min 0,0 UV-I 0 W/m 25,7 km/h (4 Bft)
24.12.2013 01:52 11,3 C 9,4 C 73 % 997,5 hPa 0,0 l/m 0 min 0 min 0,0 UV-I 0 W/m 15,4 km/h (3 Bft)
24.12.2013 01:54 11,3 C 9,4 C 73 % 997,5 hPa 0,0 l/m 0 min 0 min 0,0 UV-I 0 W/m 20,6 km/h (4 Bft)
24.12.2013 01:56 11,2 C 9,4 C 73 % 997,6 hPa 0,0 l/m 0 min 0 min 0,0 UV-I 0 W/m 25,7 km/h (4 Bft)
24.12.2013 01:58 11,2 C 9,4 C 73 % 997,5 hPa 0,0 l/m 0 min 0 min 0,0 UV-I 0 W/m 25,7 km/h (4 Bft)
24.12.2013 02:00 11,2 C 9,4 C 72 % 997,5 hPa 0,0 l/m 0 min 0 min 0,0 UV-I 0 W/m 18,0 km/h (3 Bft)
24.12.2013 02:02 11,3 C 9,4 C 72 % 997,3 hPa 0,0 l/m 0 min 0 min 0,0 UV-I 0 W/m 28,3 km/h (4 Bft)
24.12.2013 02:04 11,2 C 9,4 C 72 % 997,4 hPa 0,0 l/m 0 min 0 min 0,0 UV-I 0 W/m 33,5 km/h (5 Bft)
24.12.2013 02:06 11,3 C 9,4 C 72 % 997,3 hPa 0,0 l/m 0 min 0 min 0,0 UV-I 0 W/m 18,0 km/h (3 Bft)
24.12.2013 02:08 11,3 C 9,4 C 72 % 997,3 hPa 0,0 l/m 0 min 0 min 0,0 UV-I 0 W/m 36,0 km/h (5 Bft)
24.12.2013 02:10 11,3 C 9,4 C 72 % 997,2 hPa 0,0 l/m 0 min 0 min 0,0 UV-I 0 W/m 36,0 km/h (5 Bft)
24.12.2013 02:12 11,2 C 9,4 C 72 % 997,2 hPa 0,0 l/m 0 min 0 min 0,0 UV-I 0 W/m 30,9 km/h (5 Bft)
24.12.2013 02:14 11,3 C 9,4 C 72 % 997,2 hPa 0,0 l/m 0 min 0 min 0,0 UV-I 0 W/m 38,6 km/h (5 Bft)
24.12.2013 02:16 11,2 C 9,4 C 72 % 997,1 hPa 0,0 l/m 0 min 0 min 0,0 UV-I 0 W/m 25,7 km/h (4 Bft)
24.12.2013 02:18 11,2 C 9,4 C 72 % 997,1 hPa 0,0 l/m 0 min 0 min 0,0 UV-I 0 W/m 23,2 km/h (4 Bft)
24.12.2013 02:20 11,2 C 9,4 C 72 % 997,2 hPa 0,0 l/m 0 min 0 min 0,0 UV-I 0 W/m 20,6 km/h (4 Bft)
24.12.2013 02:22 11,2 C 9,4 C 72 % 997,2 hPa 0,0 l/m 0 min 0 min 0,0 UV-I 0 W/m 25,7 km/h (4 Bft)
24.12.2013 02:24 11,2 C 9,4 C 72 % 997,2 hPa 0,0 l/m 0 min 0 min 0,0 UV-I 0 W/m 33,5 km/h (5 Bft)
24.12.2013 02:26 11,2 C 9,4 C 72 % 997,0 hPa 0,0 l/m 0 min 0 min 0,0 UV-I 0 W/m 10,3 km/h (2 Bft)
24.12.2013 02:28 11,2 C 9,4 C 72 % 997,0 hPa 0,0 l/m 0 min 0 min 0,0 UV-I 0 W/m 20,6 km/h (4 Bft)
24.12.2013 02:30 11,2 C 9,4 C 72 % 997,0 hPa 0,0 l/m 0 min 0 min 0,0 UV-I 0 W/m 28,3 km/h (4 Bft)
24.12.2013 02:32 11,2 C 9,4 C 72 % 997,0 hPa 0,0 l/m 0 min 0 min 0,0 UV-I 0 W/m 25,7 km/h (4 Bft)
24.12.2013 02:34 11,2 C 9,4 C 72 % 997,0 hPa 0,0 l/m 0 min 0 min 0,0 UV-I 0 W/m 23,2 km/h (4 Bft)
24.12.2013 02:36 11,2 C 9,4 C 72 % 997,0 hPa 0,0 l/m 0 min 0 min 0,0 UV-I 0 W/m 12,9 km/h (3 Bft)
24.12.2013 02:38 11,2 C 9,4 C 73 % 997,0 hPa 0,0 l/m 0 min 0 min 0,0 UV-I 0 W/m 23,2 km/h (4 Bft)
24.12.2013 02:40 11,2 C 9,4 C 73 % 997,0 hPa 0,0 l/m 0 min 0 min 0,0 UV-I 0 W/m 15,4 km/h (3 Bft)
24.12.2013 02:42 11,1 C 9,4 C 72 % 996,9 hPa 0,0 l/m 0 min 0 min 0,0 UV-I 0 W/m 30,9 km/h (5 Bft)
24.12.2013 02:44 11,1 C 9,4 C 72 % 996,9 hPa 0,0 l/m 0 min 0 min 0,0 UV-I 0 W/m 18,0 km/h (3 Bft)
24.12.2013 02:46 11,1 C 9,4 C 72 % 996,9 hPa 0,0 l/m 0 min 0 min 0,0 UV-I 0 W/m 18,0 km/h (3 Bft)
24.12.2013 02:48 11,1 C 9,4 C 72 % 996,8 hPa 0,0 l/m 0 min 0 min 0,0 UV-I 0 W/m 23,2 km/h (4 Bft)
24.12.2013 02:50 11,1 C 9,4 C 72 % 996,6 hPa 0,0 l/m 0 min 0 min 0,0 UV-I 0 W/m 28,3 km/h (4 Bft)
24.12.2013 02:52 11,1 C 9,4 C 72 % 996,8 hPa 0,0 l/m 0 min 0 min 0,0 UV-I 0 W/m 28,3 km/h (4 Bft)
24.12.2013 02:54 11,1 C 9,4 C 72 % 996,8 hPa 0,0 l/m 0 min 0 min 0,0 UV-I 0 W/m 38,6 km/h (5 Bft)
24.12.2013 02:56 11,1 C 9,4 C 72 % 996,7 hPa 0,0 l/m 0 min 0 min 0,0 UV-I 0 W/m 28,3 km/h (4 Bft)
24.12.2013 02:58 11,1 C 9,4 C 72 % 996,7 hPa 0,0 l/m 0 min 0 min 0,0 UV-I 0 W/m 23,2 km/h (4 Bft)
24.12.2013 03:00 11,1 C 9,4 C 72 % 996,8 hPa 0,0 l/m 0 min 0 min 0,0 UV-I 0 W/m 30,9 km/h (5 Bft)
24.12.2013 03:02 11,1 C 9,4 C 72 % 996,7 hPa 0,0 l/m 0 min 0 min 0,0 UV-I 0 W/m 15,4 km/h (3 Bft)
24.12.2013 03:04 11,1 C 9,4 C 72 % 996,7 hPa 0,0 l/m 0 min 0 min 0,0 UV-I 0 W/m 15,4 km/h (3 Bft)
24.12.2013 03:06 11,1 C 9,4 C 72 % 996,6 hPa 0,0 l/m 0 min 0 min 0,0 UV-I 0 W/m 30,9 km/h (5 Bft)
24.12.2013 03:08 11,1 C 9,4 C 72 % 996,6 hPa 0,0 l/m 0 min 0 min 0,0 UV-I 0 W/m 38,6 km/h (5 Bft)
24.12.2013 03:10 11,1 C 9,4 C 72 % 996,5 hPa 0,0 l/m 0 min 0 min 0,0 UV-I 0 W/m 25,7 km/h (4 Bft)
24.12.2013 03:12 11,1 C 9,4 C 71 % 996,4 hPa 0,0 l/m 0 min 0 min 0,0 UV-I 0 W/m 25,7 km/h (4 Bft)
24.12.2013 03:14 11,1 C 9,4 C 71 % 996,4 hPa 0,0 l/m 0 min 0 min 0,0 UV-I 0 W/m 25,7 km/h (4 Bft)
24.12.2013 03:16 11,1 C 9,4 C 71 % 996,4 hPa 0,0 l/m 0 min 0 min 0,0 UV-I 0 W/m 30,9 km/h (5 Bft)
24.12.2013 03:18 11,1 C 9,4 C 71 % 996,4 hPa 0,0 l/m 0 min 0 min 0,0 UV-I 0 W/m 25,7 km/h (4 Bft)
24.12.2013 03:20 11,1 C 9,4 C 71 % 996,4 hPa 0,0 l/m 0 min 0 min 0,0 UV-I 0 W/m 25,7 km/h (4 Bft)
24.12.2013 03:22 11,1 C 9,4 C 71 % 996,3 hPa 0,0 l/m 0 min 0 min 0,0 UV-I 0 W/m 18,0 km/h (3 Bft)
24.12.2013 03:24 11,2 C 9,4 C 71 % 996,4 hPa 0,0 l/m 0 min 0 min 0,0 UV-I 0 W/m 20,6 km/h (4 Bft)
24.12.2013 03:26 11,2 C 9,4 C 71 % 996,2 hPa 0,0 l/m 0 min 0 min 0,0 UV-I 0 W/m 18,0 km/h (3 Bft)
24.12.2013 03:28 11,2 C 9,4 C 71 % 996,4 hPa 0,0 l/m 0 min 0 min 0,0 UV-I 0 W/m 36,0 km/h (5 Bft)
24.12.2013 03:30 11,2 C 9,4 C 70 % 996,4 hPa 0,0 l/m 0 min 0 min 0,0 UV-I 0 W/m 33,5 km/h (5 Bft)
24.12.2013 03:32 11,2 C 9,4 C 70 % 996,3 hPa 0,0 l/m 0 min 0 min 0,0 UV-I 0 W/m 25,7 km/h (4 Bft)
24.12.2013 03:34 11,2 C 9,4 C 70 % 996,3 hPa 0,0 l/m 0 min 0 min 0,0 UV-I 0 W/m 28,3 km/h (4 Bft)
24.12.2013 03:36 11,2 C 9,4 C 70 % 996,2 hPa 0,0 l/m 0 min 0 min 0,0 UV-I 0 W/m 20,6 km/h (4 Bft)
24.12.2013 03:38 11,2 C 9,4 C 70 % 996,0 hPa 0,0 l/m 0 min 0 min 0,0 UV-I 0 W/m 28,3 km/h (4 Bft)
24.12.2013 03:40 11,2 C 9,4 C 70 % 996,0 hPa 0,0 l/m 0 min 0 min 0,0 UV-I 0 W/m 23,2 km/h (4 Bft)
24.12.2013 03:42 11,2 C 9,4 C 70 % 996,0 hPa 0,0 l/m 0 min 0 min 0,0 UV-I 0 W/m 38,6 km/h (5 Bft)
24.12.2013 03:44 11,2 C 9,4 C 70 % 995,9 hPa 0,0 l/m 0 min 0 min 0,0 UV-I 0 W/m 28,3 km/h (4 Bft)
24.12.2013 03:46 11,2 C 9,4 C 70 % 996,0 hPa 0,0 l/m 0 min 0 min 0,0 UV-I 0 W/m 18,0 km/h (3 Bft)
24.12.2013 03:48 11,2 C 9,4 C 70 % 995,9 hPa 0,0 l/m 0 min 0 min 0,0 UV-I 0 W/m 18,0 km/h (3 Bft)
24.12.2013 03:50 11,1 C 9,4 C 70 % 995,9 hPa 0,0 l/m 0 min 0 min 0,0 UV-I 0 W/m 36,0 km/h (5 Bft)
24.12.2013 03:52 11,1 C 9,4 C 70 % 995,9 hPa 0,0 l/m 0 min 0 min 0,0 UV-I 0 W/m 18,0 km/h (3 Bft)
24.12.2013 03:54 11,1 C 9,4 C 70 % 995,7 hPa 0,0 l/m 0 min 0 min 0,0 UV-I 0 W/m 20,6 km/h (4 Bft)
24.12.2013 03:56 11,1 C 9,4 C 70 % 995,8 hPa 0,0 l/m 0 min 0 min 0,0 UV-I 0 W/m 33,5 km/h (5 Bft)
24.12.2013 03:58 11,1 C 9,4 C 69 % 995,6 hPa 0,0 l/m 0 min 0 min 0,0 UV-I 0 W/m 10,3 km/h (2 Bft)
24.12.2013 04:00 11,1 C 9,4 C 69 % 995,7 hPa 0,0 l/m 0 min 0 min 0,0 UV-I 0 W/m 20,6 km/h (4 Bft)
24.12.2013 04:02 11,1 C 9,4 C 69 % 995,6 hPa 0,0 l/m 0 min 0 min 0,0 UV-I 0 W/m 23,2 km/h (4 Bft)
24.12.2013 04:04 11,1 C 9,4 C 70 % 995,6 hPa 0,0 l/m 0 min 0 min 0,0 UV-I 0 W/m 15,4 km/h (3 Bft)
24.12.2013 04:06 11,1 C 9,4 C 70 % 995,6 hPa 0,0 l/m 0 min 0 min 0,0 UV-I 0 W/m 18,0 km/h (3 Bft)
24.12.2013 04:08 11,1 C 9,4 C 70 % 995,5 hPa 0,0 l/m 0 min 0 min 0,0 UV-I 0 W/m 33,5 km/h (5 Bft)
24.12.2013 04:10 11,1 C 9,4 C 69 % 995,5 hPa 0,0 l/m 0 min 0 min 0,0 UV-I 0 W/m 23,2 km/h (4 Bft)
24.12.2013 04:12 11,1 C 9,4 C 69 % 995,3 hPa 0,0 l/m 0 min 0 min 0,0 UV-I 0 W/m 28,3 km/h (4 Bft)
24.12.2013 04:14 11,1 C 9,4 C 69 % 995,3 hPa 0,0 l/m 0 min 0 min 0,0 UV-I 0 W/m 41,2 km/h (6 Bft)
24.12.2013 04:16 11,1 C 9,4 C 69 % 995,2 hPa 0,0 l/m 0 min 0 min 0,0 UV-I 0 W/m 23,2 km/h (4 Bft)
24.12.2013 04:18 11,1 C 9,4 C 70 % 995,1 hPa 0,0 l/m 0 min 0 min 0,0 UV-I 0 W/m 25,7 km/h (4 Bft)
24.12.2013 04:20 11,1 C 8,9 C 70 % 995,0 hPa 0,0 l/m 0 min 0 min 0,0 UV-I 0 W/m 36,0 km/h (5 Bft)
24.12.2013 04:22 11,0 C 9,4 C 69 % 995,0 hPa 0,0 l/m 0 min 0 min 0,0 UV-I 0 W/m 28,3 km/h (4 Bft)
24.12.2013 04:24 11,1 C 9,4 C 69 % 995,0 hPa 0,0 l/m 0 min 0 min 0,0 UV-I 0 W/m 20,6 km/h (4 Bft)
24.12.2013 04:26 11,1 C 8,9 C 70 % 995,1 hPa 0,0 l/m 0 min 0 min 0,0 UV-I 0 W/m 36,0 km/h (5 Bft)
24.12.2013 04:28 11,1 C 9,4 C 69 % 994,8 hPa 0,0 l/m 0 min 0 min 0,0 UV-I 0 W/m 36,0 km/h (5 Bft)
24.12.2013 04:30 11,1 C 9,4 C 70 % 994,9 hPa 0,0 l/m 0 min 0 min 0,0 UV-I 0 W/m 30,9 km/h (5 Bft)
24.12.2013 04:32 11,1 C 9,4 C 70 % 995,0 hPa 0,0 l/m 0 min 0 min 0,0 UV-I 0 W/m 28,3 km/h (4 Bft)
24.12.2013 04:34 11,1 C 9,4 C 69 % 994,9 hPa 0,0 l/m 0 min 0 min 0,0 UV-I 0 W/m 25,7 km/h (4 Bft)
24.12.2013 04:36 11,1 C 9,4 C 69 % 994,9 hPa 0,0 l/m 0 min 0 min 0,0 UV-I 0 W/m 20,6 km/h (4 Bft)
24.12.2013 04:38 11,1 C 9,4 C 69 % 995,0 hPa 0,0 l/m 0 min 0 min 0,0 UV-I 0 W/m 30,9 km/h (5 Bft)
24.12.2013 04:40 11,1 C 9,4 C 69 % 994,8 hPa 0,0 l/m 0 min 0 min 0,0 UV-I 0 W/m 28,3 km/h (4 Bft)
24.12.2013 04:42 11,2 C 9,4 C 69 % 994,8 hPa 0,0 l/m 0 min 0 min 0,0 UV-I 0 W/m 25,7 km/h (4 Bft)
24.12.2013 04:44 11,2 C 9,4 C 69 % 994,8 hPa 0,0 l/m 0 min 0 min 0,0 UV-I 0 W/m 51,5 km/h (7 Bft)
24.12.2013 04:46 11,2 C 9,4 C 69 % 994,7 hPa 0,0 l/m 0 min 0 min 0,0 UV-I 0 W/m 38,6 km/h (5 Bft)
24.12.2013 04:48 11,2 C 9,4 C 69 % 994,6 hPa 0,0 l/m 0 min 0 min 0,0 UV-I 0 W/m 20,6 km/h (4 Bft)
24.12.2013 04:50 11,3 C 9,4 C 69 % 994,7 hPa 0,0 l/m 0 min 0 min 0,0 UV-I 0 W/m 20,6 km/h (4 Bft)
24.12.2013 04:52 11,3 C 9,4 C 69 % 994,8 hPa 0,0 l/m 0 min 0 min 0,0 UV-I 0 W/m 30,9 km/h (5 Bft)
24.12.2013 04:54 11,3 C 9,4 C 69 % 994,6 hPa 0,0 l/m 0 min 0 min 0,0 UV-I 0 W/m 46,3 km/h (6 Bft)
24.12.2013 04:56 11,4 C 10,0 C 68 % 994,5 hPa 0,0 l/m 0 min 0 min 0,0 UV-I 0 W/m 43,8 km/h (6 Bft)
24.12.2013 04:58 11,4 C 10,0 C 68 % 994,3 hPa 0,0 l/m 0 min 0 min 0,0 UV-I 0 W/m 36,0 km/h (5 Bft)
24.12.2013 05:00 11,4 C 10,0 C 68 % 994,5 hPa 0,0 l/m 0 min 0 min 0,0 UV-I 0 W/m 20,6 km/h (4 Bft)
24.12.2013 05:02 11,5 C 10,0 C 68 % 994,4 hPa 0,0 l/m 0 min 0 min 0,0 UV-I 0 W/m 41,2 km/h (6 Bft)
24.12.2013 05:04 11,6 C 10,0 C 68 % 994,5 hPa 0,0 l/m 0 min 0 min 0,0 UV-I 0 W/m 23,2 km/h (4 Bft)
24.12.2013 05:06 11,6 C 10,0 C 68 % 994,4 hPa 0,0 l/m 0 min 0 min 0,0 UV-I 0 W/m 36,0 km/h (5 Bft)
24.12.2013 05:08 11,6 C 10,0 C 68 % 994,3 hPa 0,0 l/m 0 min 0 min 0,0 UV-I 0 W/m 25,7 km/h (4 Bft)
24.12.2013 05:10 11,6 C 10,0 C 67 % 994,3 hPa 0,0 l/m 0 min 0 min 0,0 UV-I 0 W/m 33,5 km/h (5 Bft)
24.12.2013 05:12 11,7 C 10,0 C 68 % 994,1 hPa 0,0 l/m 0 min 0 min 0,0 UV-I 0 W/m 33,5 km/h (5 Bft)
24.12.2013 05:14 11,7 C 10,0 C 67 % 994,3 hPa 0,0 l/m 0 min 0 min 0,0 UV-I 0 W/m 43,8 km/h (6 Bft)
24.12.2013 05:16 11,7 C 10,0 C 67 % 994,3 hPa 0,0 l/m 0 min 0 min 0,0 UV-I 0 W/m 28,3 km/h (4 Bft)
24.12.2013 05:18 11,7 C 10,0 C 67 % 994,1 hPa 0,0 l/m 0 min 0 min 0,0 UV-I 0 W/m 36,0 km/h (5 Bft)
24.12.2013 05:20 11,8 C 10,0 C 67 % 994,2 hPa 0,0 l/m 0 min 0 min 0,0 UV-I 0 W/m 36,0 km/h (5 Bft)
24.12.2013 05:22 11,8 C 10,0 C 67 % 994,1 hPa 0,0 l/m 0 min 0 min 0,0 UV-I 0 W/m 30,9 km/h (5 Bft)
24.12.2013 05:24 11,8 C 10,0 C 67 % 994,1 hPa 0,0 l/m 0 min 0 min 0,0 UV-I 0 W/m 20,6 km/h (4 Bft)
24.12.2013 05:26 11,8 C 10,0 C 66 % 994,1 hPa 0,0 l/m 0 min 0 min 0,0 UV-I 0 W/m 28,3 km/h (4 Bft)
24.12.2013 05:28 11,8 C 10,0 C 67 % 994,0 hPa 0,0 l/m 0 min 0 min 0,0 UV-I 0 W/m 38,6 km/h (5 Bft)
24.12.2013 05:30 11,8 C 10,0 C 66 % 994,0 hPa 0,0 l/m 0 min 0 min 0,0 UV-I 0 W/m 33,5 km/h (5 Bft)
24.12.2013 05:32 11,8 C 10,0 C 66 % 994,2 hPa 0,0 l/m 0 min 0 min 0,0 UV-I 0 W/m 36,0 km/h (5 Bft)
24.12.2013 05:34 11,8 C 10,0 C 66 % 994,2 hPa 0,0 l/m 0 min 0 min 0,0 UV-I 0 W/m 38,6 km/h (5 Bft)
24.12.2013 05:36 11,8 C 10,0 C 66 % 994,1 hPa 0,0 l/m 0 min 0 min 0,0 UV-I 0 W/m 46,3 km/h (6 Bft)
24.12.2013 05:38 11,8 C 10,0 C 66 % 994,0 hPa 0,0 l/m 0 min 0 min 0,0 UV-I 0 W/m 33,5 km/h (5 Bft)
24.12.2013 05:40 11,8 C 10,0 C 66 % 993,8 hPa 0,0 l/m 0 min 0 min 0,0 UV-I 0 W/m 25,7 km/h (4 Bft)
24.12.2013 05:42 11,8 C 10,0 C 66 % 993,9 hPa 0,0 l/m 0 min 0 min 0,0 UV-I 0 W/m 38,6 km/h (5 Bft)
24.12.2013 05:44 11,8 C 10,0 C 66 % 993,7 hPa 0,0 l/m 0 min 0 min 0,0 UV-I 0 W/m 38,6 km/h (5 Bft)
24.12.2013 05:46 11,8 C 10,0 C 65 % 993,5 hPa 0,0 l/m 0 min 0 min 0,0 UV-I 0 W/m 36,0 km/h (5 Bft)
24.12.2013 05:48 11,8 C 10,0 C 65 % 993,5 hPa 0,0 l/m 0 min 0 min 0,0 UV-I 0 W/m 36,0 km/h (5 Bft)
24.12.2013 05:50 11,8 C 10,0 C 65 % 993,5 hPa 0,0 l/m 0 min 0 min 0,0 UV-I 0 W/m 36,0 km/h (5 Bft)
24.12.2013 05:52 11,8 C 10,0 C 65 % 993,4 hPa 0,0 l/m 0 min 0 min 0,0 UV-I 0 W/m 43,8 km/h (6 Bft)
24.12.2013 05:54 11,8 C 10,0 C 65 % 993,5 hPa 0,0 l/m 0 min 0 min 0,0 UV-I 0 W/m 38,6 km/h (5 Bft)
24.12.2013 05:56 11,8 C 10,0 C 65 % 993,6 hPa 0,0 l/m 0 min 2 min 0,0 UV-I 0 W/m 30,9 km/h (5 Bft)
24.12.2013 05:58 11,8 C 9,4 C 66 % 993,4 hPa 0,0 l/m 0 min 2 min 0,0 UV-I 0 W/m 25,7 km/h (4 Bft)
24.12.2013 06:00 11,8 C 9,4 C 66 % 993,5 hPa 0,0 l/m 0 min 0 min 0,0 UV-I 0 W/m 25,7 km/h (4 Bft)
24.12.2013 06:02 11,8 C 9,4 C 67 % 993,5 hPa 0,0 l/m 0 min 2 min 0,0 UV-I 0 W/m 46,3 km/h (6 Bft)
24.12.2013 06:04 11,7 C 8,9 C 67 % 993,5 hPa 0,0 l/m 0 min 2 min 0,0 UV-I 0 W/m 36,0 km/h (5 Bft)
24.12.2013 06:06 11,7 C 8,9 C 67 % 993,6 hPa 0,0 l/m 0 min 2 min 0,0 UV-I 0 W/m 25,7 km/h (4 Bft)
24.12.2013 06:08 11,7 C 9,4 C 67 % 993,6 hPa 0,0 l/m 0 min 2 min 0,0 UV-I 0 W/m 28,3 km/h (4 Bft)
24.12.2013 06:10 11,6 C 9,4 C 67 % 993,8 hPa 0,0 l/m 0 min 2 min 0,0 UV-I 0 W/m 38,6 km/h (5 Bft)
24.12.2013 06:12 11,6 C 9,4 C 67 % 993,5 hPa 0,0 l/m 0 min 2 min 0,0 UV-I 0 W/m 33,5 km/h (5 Bft)
24.12.2013 06:14 11,6 C 9,4 C 67 % 993,5 hPa 0,0 l/m 0 min 2 min 0,0 UV-I 0 W/m 46,3 km/h (6 Bft)
24.12.2013 06:16 11,6 C 9,4 C 67 % 993,5 hPa 0,0 l/m 0 min 2 min 0,0 UV-I 0 W/m 28,3 km/h (4 Bft)
24.12.2013 06:18 11,6 C 9,4 C 67 % 993,4 hPa 0,0 l/m 0 min 2 min 0,0 UV-I 0 W/m 28,3 km/h (4 Bft)
24.12.2013 06:20 11,6 C 9,4 C 67 % 993,4 hPa 0,0 l/m 0 min 2 min 0,0 UV-I 0 W/m 25,7 km/h (4 Bft)
24.12.2013 06:22 11,5 C 9,4 C 68 % 993,4 hPa 0,0 l/m 0 min 2 min 0,0 UV-I 0 W/m 28,3 km/h (4 Bft)
24.12.2013 06:24 11,5 C 8,9 C 68 % 993,4 hPa 0,0 l/m 0 min 2 min 0,0 UV-I 0 W/m 25,7 km/h (4 Bft)
24.12.2013 06:26 11,5 C 8,9 C 68 % 993,4 hPa 0,0 l/m 0 min 2 min 0,0 UV-I 0 W/m 20,6 km/h (4 Bft)
24.12.2013 06:28 11,4 C 8,9 C 68 % 993,4 hPa 0,0 l/m 0 min 2 min 0,0 UV-I 0 W/m 48,9 km/h (6 Bft)
24.12.2013 06:30 11,4 C 8,9 C 68 % 993,4 hPa 0,0 l/m 0 min 2 min 0,0 UV-I 0 W/m 36,0 km/h (5 Bft)
24.12.2013 06:32 11,4 C 8,3 C 69 % 993,3 hPa 0,0 l/m 0 min 2 min 0,0 UV-I 0 W/m 38,6 km/h (5 Bft)
24.12.2013 06:34 11,4 C 8,3 C 70 % 993,3 hPa 0,0 l/m 0 min 2 min 0,0 UV-I 0 W/m 30,9 km/h (5 Bft)
24.12.2013 06:36 11,3 C 7,8 C 70 % 993,4 hPa 0,0 l/m 0 min 2 min 0,0 UV-I 0 W/m 30,9 km/h (5 Bft)
24.12.2013 06:38 11,3 C 7,8 C 71 % 993,1 hPa 0,0 l/m 0 min 2 min 0,0 UV-I 0 W/m 43,8 km/h (6 Bft)
24.12.2013 06:40 11,2 C 8,3 C 71 % 993,1 hPa 0,0 l/m 0 min 2 min 0,0 UV-I 0 W/m 30,9 km/h (5 Bft)
24.12.2013 06:42 11,2 C 8,3 C 71 % 993,2 hPa 0,0 l/m 0 min 2 min 0,0 UV-I 0 W/m 28,3 km/h (4 Bft)
24.12.2013 06:44 11,2 C 8,3 C 72 % 993,1 hPa 0,0 l/m 0 min 2 min 0,0 UV-I 0 W/m 25,7 km/h (4 Bft)
24.12.2013 06:46 11,2 C 7,8 C 72 % 993,2 hPa 0,0 l/m 0 min 2 min 0,0 UV-I 0 W/m 30,9 km/h (5 Bft)
24.12.2013 06:48 11,1 C 7,8 C 72 % 993,2 hPa 0,0 l/m 0 min 2 min 0,0 UV-I 0 W/m 25,7 km/h (4 Bft)
24.12.2013 06:50 11,1 C 7,8 C 72 % 993,1 hPa 0,0 l/m 0 min 2 min 0,0 UV-I 0 W/m 23,2 km/h (4 Bft)
24.12.2013 06:52 11,1 C 8,3 C 72 % 993,3 hPa 0,0 l/m 0 min 2 min 0,0 UV-I 0 W/m 25,7 km/h (4 Bft)
24.12.2013 06:54 11,1 C 8,3 C 72 % 993,0 hPa 0,0 l/m 0 min 2 min 0,0 UV-I 0 W/m 25,7 km/h (4 Bft)
24.12.2013 06:56 11,1 C 8,3 C 72 % 993,1 hPa 0,0 l/m 0 min 2 min 0,0 UV-I 0 W/m 36,0 km/h (5 Bft)
24.12.2013 06:58 11,1 C 8,3 C 72 % 993,2 hPa 0,0 l/m 0 min 2 min 0,0 UV-I 0 W/m 41,2 km/h (6 Bft)
24.12.2013 07:00 11,1 C 8,3 C 73 % 993,3 hPa 0,0 l/m 0 min 2 min 0,0 UV-I 0 W/m 38,6 km/h (5 Bft)
24.12.2013 07:02 11,1 C 8,3 C 73 % 993,2 hPa 0,0 l/m 0 min 2 min 0,0 UV-I 0 W/m 30,9 km/h (5 Bft)
24.12.2013 07:04 11,1 C 8,9 C 72 % 993,1 hPa 0,0 l/m 0 min 2 min 0,0 UV-I 0 W/m 38,6 km/h (5 Bft)
24.12.2013 07:06 11,1 C 8,9 C 72 % 993,1 hPa 0,0 l/m 0 min 2 min 0,0 UV-I 0 W/m 64,4 km/h (8 Bft)
24.12.2013 07:08 11,2 C 9,4 C 71 % 993,2 hPa 0,0 l/m 0 min 2 min 0,0 UV-I 0 W/m 41,2 km/h (6 Bft)
24.12.2013 07:10 11,3 C 9,4 C 71 % 993,1 hPa 0,0 l/m 0 min 0 min 0,0 UV-I 0 W/m 43,8 km/h (6 Bft)
24.12.2013 07:12 11,3 C 9,4 C 71 % 993,3 hPa 0,0 l/m 0 min 0 min 0,0 UV-I 0 W/m 48,9 km/h (6 Bft)
24.12.2013 07:14 11,4 C 9,4 C 71 % 993,4 hPa 0,0 l/m 0 min 0 min 0,0 UV-I 0 W/m 28,3 km/h (4 Bft)
24.12.2013 07:16 11,4 C 9,4 C 71 % 993,2 hPa 0,0 l/m 0 min 2 min 0,0 UV-I 0 W/m 28,3 km/h (4 Bft)
24.12.2013 07:18 11,4 C 9,4 C 71 % 993,1 hPa 0,0 l/m 0 min 2 min 0,0 UV-I 0 W/m 30,9 km/h (5 Bft)
24.12.2013 07:20 11,4 C 8,9 C 71 % 993,1 hPa 0,0 l/m 0 min 2 min 0,0 UV-I 0 W/m 30,9 km/h (5 Bft)
24.12.2013 07:22 11,4 C 8,9 C 71 % 993,1 hPa 0,0 l/m 0 min 2 min 0,0 UV-I 0 W/m 30,9 km/h (5 Bft)
24.12.2013 07:24 11,4 C 8,9 C 72 % 993,1 hPa 0,0 l/m 0 min 2 min 0,0 UV-I 0 W/m 25,7 km/h (4 Bft)
24.12.2013 07:26 11,4 C 8,3 C 72 % 993,1 hPa 0,0 l/m 0 min 2 min 0,0 UV-I 0 W/m 38,6 km/h (5 Bft)
24.12.2013 07:28 11,4 C 8,3 C 72 % 993,0 hPa 0,0 l/m 0 min 2 min 0,0 UV-I 0 W/m 43,8 km/h (6 Bft)
24.12.2013 07:30 11,3 C 8,3 C 72 % 993,3 hPa 0,0 l/m 0 min 2 min 0,0 UV-I 0 W/m 30,9 km/h (5 Bft)
24.12.2013 07:32 11,3 C 8,3 C 73 % 993,0 hPa 0,0 l/m 0 min 2 min 0,0 UV-I 0 W/m 30,9 km/h (5 Bft)
24.12.2013 07:34 11,3 C 8,3 C 73 % 993,0 hPa 0,0 l/m 0 min 2 min 0,0 UV-I 0 W/m 46,3 km/h (6 Bft)
24.12.2013 07:36 11,2 C 8,3 C 74 % 993,0 hPa 0,0 l/m 0 min 2 min 0,0 UV-I 0 W/m 30,9 km/h (5 Bft)
24.12.2013 07:38 11,2 C 8,3 C 74 % 992,9 hPa 0,0 l/m 0 min 2 min 0,0 UV-I 0 W/m 36,0 km/h (5 Bft)
24.12.2013 07:40 11,2 C 8,3 C 74 % 993,1 hPa 0,0 l/m 0 min 2 min 0,0 UV-I 0 W/m 36,0 km/h (5 Bft)
24.12.2013 07:42 11,1 C 8,9 C 74 % 993,0 hPa 0,0 l/m 0 min 2 min 0,0 UV-I 0 W/m 28,3 km/h (4 Bft)
24.12.2013 07:44 11,1 C 8,9 C 74 % 992,9 hPa 0,0 l/m 0 min 0 min 0,0 UV-I 0 W/m 36,0 km/h (5 Bft)
24.12.2013 07:46 11,1 C 8,9 C 74 % 992,8 hPa 0,0 l/m 0 min 0 min 0,0 UV-I 0 W/m 18,0 km/h (3 Bft)
24.12.2013 07:48 11,1 C 8,9 C 74 % 993,0 hPa 0,0 l/m 0 min 0 min 0,0 UV-I 0 W/m 38,6 km/h (5 Bft)
24.12.2013 07:50 11,1 C 9,4 C 73 % 993,1 hPa 0,0 l/m 0 min 0 min 0,0 UV-I 0 W/m 23,2 km/h (4 Bft)
24.12.2013 07:52 11,1 C 9,4 C 73 % 992,6 hPa 0,0 l/m 0 min 2 min 0,0 UV-I 0 W/m 33,5 km/h (5 Bft)
24.12.2013 07:54 11,2 C 9,4 C 73 % 992,7 hPa 0,0 l/m 0 min 0 min 0,0 UV-I 0 W/m 30,9 km/h (5 Bft)
24.12.2013 07:56 11,2 C 9,4 C 73 % 992,6 hPa 0,0 l/m 0 min 0 min 0,0 UV-I 0 W/m 38,6 km/h (5 Bft)
24.12.2013 07:58 11,2 C 9,4 C 73 % 992,6 hPa 0,0 l/m 0 min 0 min 0,0 UV-I 0 W/m 28,3 km/h (4 Bft)
24.12.2013 08:00 11,3 C 9,4 C 73 % 992,6 hPa 0,0 l/m 0 min 0 min 0,0 UV-I 0 W/m 12,9 km/h (3 Bft)
24.12.2013 08:02 11,3 C 9,4 C 72 % 992,9 hPa 0,0 l/m 0 min 0 min 0,0 UV-I 0 W/m 28,3 km/h (4 Bft)
24.12.2013 08:04 11,3 C 9,4 C 72 % 992,7 hPa 0,0 l/m 0 min 0 min 0,0 UV-I 0 W/m 28,3 km/h (4 Bft)
24.12.2013 08:06 11,3 C 9,4 C 72 % 992,9 hPa 0,0 l/m 0 min 0 min 0,0 UV-I 0 W/m 36,0 km/h (5 Bft)
24.12.2013 08:08 11,4 C 9,4 C 72 % 992,6 hPa 0,0 l/m 0 min 0 min 0,0 UV-I 0 W/m 23,2 km/h (4 Bft)
24.12.2013 08:10 11,4 C 9,4 C 72 % 992,9 hPa 0,0 l/m 0 min 0 min 0,0 UV-I 0 W/m 48,9 km/h (6 Bft)
24.12.2013 08:12 11,4 C 9,4 C 72 % 992,5 hPa 0,0 l/m 0 min 0 min 0,0 UV-I 0 W/m 38,6 km/h (5 Bft)
24.12.2013 08:14 11,4 C 9,4 C 72 % 992,5 hPa 0,0 l/m 0 min 0 min 0,0 UV-I 0 W/m 23,2 km/h (4 Bft)
24.12.2013 08:16 11,5 C 9,4 C 72 % 992,7 hPa 0,0 l/m 0 min 0 min 0,0 UV-I 0 W/m 38,6 km/h (5 Bft)
24.12.2013 08:18 11,5 C 10,0 C 72 % 992,7 hPa 0,0 l/m 0 min 0 min 0,0 UV-I 0 W/m 28,3 km/h (4 Bft)
24.12.2013 08:20 11,5 C 10,0 C 72 % 992,5 hPa 0,0 l/m 0 min 0 min 0,0 UV-I 0 W/m 18,0 km/h (3 Bft)
24.12.2013 08:22 11,5 C 10,0 C 73 % 992,5 hPa 0,0 l/m 0 min 0 min 0,0 UV-I 0 W/m 20,6 km/h (4 Bft)
24.12.2013 08:24 11,6 C 10,0 C 73 % 992,5 hPa 0,0 l/m 0 min 0 min 0,0 UV-I 0 W/m 43,8 km/h (6 Bft)
24.12.2013 08:26 11,6 C 10,0 C 73 % 993,0 hPa 0,0 l/m 0 min 0 min 0,0 UV-I 0 W/m 38,6 km/h (5 Bft)
24.12.2013 08:28 11,6 C 10,0 C 73 % 992,5 hPa 0,0 l/m 0 min 0 min 0,0 UV-I 0 W/m 28,3 km/h (4 Bft)
24.12.2013 08:30 11,6 C 10,0 C 73 % 992,5 hPa 0,0 l/m 0 min 0 min 0,0 UV-I 0 W/m 25,7 km/h (4 Bft)
24.12.2013 08:32 11,6 C 10,0 C 73 % 992,6 hPa 0,0 l/m 0 min 0 min 0,0 UV-I 0 W/m 38,6 km/h (5 Bft)
24.12.2013 08:34 11,6 C 10,0 C 73 % 992,5 hPa 0,0 l/m 0 min 0 min 0,0 UV-I 0 W/m 54,1 km/h (7 Bft)
24.12.2013 08:36 11,6 C 9,4 C 73 % 992,7 hPa 0,0 l/m 0 min 2 min 0,0 UV-I 0 W/m 38,6 km/h (5 Bft)
24.12.2013 08:38 11,7 C 9,4 C 73 % 992,3 hPa 0,0 l/m 0 min 2 min 0,0 UV-I 0 W/m 33,5 km/h (5 Bft)
24.12.2013 08:40 11,6 C 9,4 C 74 % 992,4 hPa 0,0 l/m 0 min 2 min 0,0 UV-I 0 W/m 41,2 km/h (6 Bft)
24.12.2013 08:42 11,6 C 9,4 C 74 % 992,5 hPa 0,0 l/m 0 min 2 min 0,0 UV-I 0 W/m 38,6 km/h (5 Bft)
24.12.2013 08:44 11,6 C 9,4 C 74 % 992,5 hPa 0,0 l/m 0 min 2 min 0,0 UV-I 0 W/m 30,9 km/h (5 Bft)
24.12.2013 08:46 11,6 C 9,4 C 74 % 992,4 hPa 0,0 l/m 0 min 2 min 0,0 UV-I 0 W/m 43,8 km/h (6 Bft)
24.12.2013 08:48 11,5 C 9,4 C 75 % 992,6 hPa 0,0 l/m 0 min 2 min 0,0 UV-I 0 W/m 18,0 km/h (3 Bft)
24.12.2013 08:50 11,5 C 8,9 C 75 % 992,2 hPa 0,0 l/m 0 min 2 min 0,0 UV-I 0 W/m 48,9 km/h (6 Bft)
24.12.2013 08:52 11,4 C 8,9 C 76 % 992,5 hPa 0,0 l/m 0 min 2 min 0,0 UV-I 0 W/m 33,5 km/h (5 Bft)
24.12.2013 08:54 11,4 C 8,9 C 76 % 992,4 hPa 0,0 l/m 0 min 2 min 0,0 UV-I 0 W/m 36,0 km/h (5 Bft)
24.12.2013 08:56 11,4 C 8,3 C 76 % 992,5 hPa 0,0 l/m 0 min 2 min 0,0 UV-I 0 W/m 30,9 km/h (5 Bft)
24.12.2013 08:58 11,3 C 8,3 C 77 % 992,7 hPa 0,0 l/m 0 min 2 min 0,0 UV-I 0 W/m 36,0 km/h (5 Bft)
24.12.2013 09:00 11,3 C 8,3 C 77 % 992,7 hPa 0,0 l/m 0 min 2 min 0,0 UV-I 0 W/m 48,9 km/h (6 Bft)
24.12.2013 09:02 11,2 C 8,3 C 78 % 992,5 hPa 0,0 l/m 0 min 2 min 0,0 UV-I 0 W/m 36,0 km/h (5 Bft)
24.12.2013 09:04 11,2 C 8,3 C 78 % 992,7 hPa 0,2 l/m 0 min 2 min 0,0 UV-I 5 W/m 23,2 km/h (4 Bft)
24.12.2013 09:06 11,1 C 7,8 C 79 % 992,7 hPa 0,0 l/m 0 min 2 min 0,0 UV-I 5 W/m 30,9 km/h (5 Bft)
24.12.2013 09:08 11,1 C 7,8 C 79 % 992,5 hPa 0,0 l/m 0 min 2 min 0,0 UV-I 5 W/m 28,3 km/h (4 Bft)
24.12.2013 09:10 11,0 C 7,8 C 80 % 992,7 hPa 0,0 l/m 0 min 2 min 0,0 UV-I 5 W/m 38,6 km/h (5 Bft)
24.12.2013 09:12 10,9 C 7,8 C 80 % 992,5 hPa 0,0 l/m 0 min 2 min 0,0 UV-I 7 W/m 41,2 km/h (6 Bft)
24.12.2013 09:14 10,9 C 7,8 C 80 % 992,6 hPa 0,0 l/m 0 min 2 min 0,0 UV-I 7 W/m 23,2 km/h (4 Bft)
24.12.2013 09:16 10,8 C 7,8 C 81 % 992,4 hPa 0,0 l/m 0 min 2 min 0,0 UV-I 7 W/m 33,5 km/h (5 Bft)
24.12.2013 09:18 10,8 C 7,8 C 82 % 992,7 hPa 0,0 l/m 0 min 2 min 0,0 UV-I 7 W/m 33,5 km/h (5 Bft)
24.12.2013 09:20 10,7 C 7,8 C 82 % 992,2 hPa 0,2 l/m 0 min 2 min 0,0 UV-I 9 W/m 36,0 km/h (5 Bft)
24.12.2013 09:22 10,7 C 7,8 C 82 % 992,2 hPa 0,0 l/m 0 min 2 min 0,0 UV-I 9 W/m 33,5 km/h (5 Bft)
24.12.2013 09:24 10,6 C 7,8 C 83 % 992,3 hPa 0,0 l/m 0 min 2 min 0,0 UV-I 9 W/m 23,2 km/h (4 Bft)
24.12.2013 09:26 10,6 C 7,8 C 83 % 992,3 hPa 0,0 l/m 0 min 2 min 0,0 UV-I 11 W/m 38,6 km/h (5 Bft)
24.12.2013 09:28 10,6 C 7,8 C 83 % 992,4 hPa 0,0 l/m 0 min 2 min 0,0 UV-I 11 W/m 33,5 km/h (5 Bft)
24.12.2013 09:30 10,5 C 7,8 C 84 % 992,9 hPa 0,0 l/m 0 min 2 min 0,0 UV-I 14 W/m 36,0 km/h (5 Bft)
24.12.2013 09:32 10,4 C 7,8 C 84 % 992,3 hPa 0,2 l/m 0 min 2 min 0,0 UV-I 18 W/m 51,5 km/h (7 Bft)
24.12.2013 09:34 10,4 C 7,8 C 84 % 992,6 hPa 0,0 l/m 0 min 2 min 0,0 UV-I 19 W/m 43,8 km/h (6 Bft)
24.12.2013 09:36 10,4 C 7,8 C 84 % 992,3 hPa 0,0 l/m 0 min 2 min 0,0 UV-I 19 W/m 46,3 km/h (6 Bft)
24.12.2013 09:38 10,4 C 7,8 C 84 % 992,3 hPa 0,0 l/m 0 min 2 min 0,0 UV-I 19 W/m 33,5 km/h (5 Bft)
24.12.2013 09:40 10,4 C 7,8 C 84 % 992,2 hPa 0,0 l/m 0 min 2 min 0,0 UV-I 19 W/m 23,2 km/h (4 Bft)
24.12.2013 09:42 10,4 C 7,8 C 85 % 992,3 hPa 0,0 l/m 0 min 2 min 0,0 UV-I 18 W/m 48,9 km/h (6 Bft)
24.12.2013 09:44 10,4 C 7,8 C 85 % 992,2 hPa 0,0 l/m 0 min 2 min 0,0 UV-I 19 W/m 41,2 km/h (6 Bft)
24.12.2013 09:46 10,4 C 7,8 C 85 % 992,4 hPa 0,0 l/m 0 min 2 min 0,0 UV-I 21 W/m 30,9 km/h (5 Bft)
24.12.2013 09:48 10,4 C 7,8 C 85 % 992,6 hPa 0,0 l/m 0 min 2 min 0,0 UV-I 19 W/m 36,0 km/h (5 Bft)
24.12.2013 09:50 10,4 C 7,8 C 85 % 992,5 hPa 0,0 l/m 0 min 2 min 0,0 UV-I 21 W/m 36,0 km/h (5 Bft)
24.12.2013 09:52 10,4 C 7,8 C 84 % 992,4 hPa 0,2 l/m 0 min 2 min 0,0 UV-I 21 W/m 46,3 km/h (6 Bft)
24.12.2013 09:54 10,5 C 7,8 C 84 % 992,5 hPa 0,0 l/m 0 min 2 min 0,0 UV-I 23 W/m 46,3 km/h (6 Bft)
24.12.2013 09:56 10,6 C 7,8 C 84 % 992,4 hPa 0,0 l/m 0 min 2 min 0,0 UV-I 25 W/m 30,9 km/h (5 Bft)
24.12.2013 09:58 10,6 C 7,8 C 84 % 992,2 hPa 0,0 l/m 0 min 2 min 0,0 UV-I 30 W/m 38,6 km/h (5 Bft)
24.12.2013 10:00 10,6 C 7,8 C 84 % 992,2 hPa 0,0 l/m 0 min 2 min 0,0 UV-I 32 W/m 30,9 km/h (5 Bft)
24.12.2013 10:02 10,7 C 7,8 C 84 % 992,2 hPa 0,0 l/m 0 min 2 min 0,0 UV-I 33 W/m 33,5 km/h (5 Bft)
24.12.2013 10:04 10,6 C 7,8 C 84 % 992,6 hPa 0,0 l/m 0 min 2 min 0,0 UV-I 35 W/m 33,5 km/h (5 Bft)
24.12.2013 10:06 10,7 C 7,8 C 84 % 992,4 hPa 0,0 l/m 0 min 2 min 0,0 UV-I 35 W/m 28,3 km/h (4 Bft)
24.12.2013 10:08 10,7 C 7,8 C 84 % 992,4 hPa 0,0 l/m 0 min 2 min 0,0 UV-I 37 W/m 36,0 km/h (5 Bft)
24.12.2013 10:10 10,7 C 7,8 C 84 % 992,4 hPa 0,0 l/m 0 min 2 min 0,0 UV-I 42 W/m 43,8 km/h (6 Bft)
24.12.2013 10:12 10,7 C 7,8 C 83 % 992,6 hPa 0,0 l/m 0 min 2 min 0,0 UV-I 39 W/m 38,6 km/h (5 Bft)
24.12.2013 10:14 10,7 C 7,8 C 83 % 992,4 hPa 0,0 l/m 0 min 2 min 0,0 UV-I 37 W/m 33,5 km/h (5 Bft)
24.12.2013 10:16 10,8 C 7,8 C 83 % 992,8 hPa 0,0 l/m 0 min 2 min 0,0 UV-I 33 W/m 30,9 km/h (5 Bft)
24.12.2013 10:18 10,8 C 7,8 C 83 % 992,6 hPa 0,0 l/m 0 min 2 min 0,0 UV-I 30 W/m 36,0 km/h (5 Bft)
24.12.2013 10:20 10,8 C 7,8 C 82 % 992,4 hPa 0,0 l/m 0 min 2 min 0,0 UV-I 30 W/m 54,1 km/h (7 Bft)
24.12.2013 10:22 10,9 C 7,8 C 82 % 992,4 hPa 0,0 l/m 0 min 2 min 0,0 UV-I 32 W/m 43,8 km/h (6 Bft)
24.12.2013 10:24 10,9 C 7,8 C 82 % 992,2 hPa 0,0 l/m 0 min 2 min 0,0 UV-I 30 W/m 36,0 km/h (5 Bft)
24.12.2013 10:26 10,9 C 7,8 C 82 % 992,3 hPa 0,0 l/m 0 min 2 min 0,0 UV-I 28 W/m 38,6 km/h (5 Bft)
24.12.2013 10:28 10,9 C 7,8 C 81 % 992,3 hPa 0,0 l/m 0 min 2 min 0,0 UV-I 30 W/m 33,5 km/h (5 Bft)
24.12.2013 10:30 11,0 C 7,8 C 81 % 992,2 hPa 0,0 l/m 0 min 2 min 0,0 UV-I 32 W/m 33,5 km/h (5 Bft)
24.12.2013 10:32 11,1 C 7,8 C 81 % 992,2 hPa 0,0 l/m 0 min 2 min 0,0 UV-I 32 W/m 23,2 km/h (4 Bft)
24.12.2013 10:34 11,1 C 8,3 C 80 % 992,3 hPa 0,0 l/m 0 min 2 min 0,0 UV-I 30 W/m 43,8 km/h (6 Bft)
24.12.2013 10:36 11,2 C 8,3 C 80 % 992,2 hPa 0,0 l/m 0 min 2 min 0,0 UV-I 30 W/m 18,0 km/h (3 Bft)
24.12.2013 10:38 11,2 C 8,3 C 80 % 992,3 hPa 0,0 l/m 0 min 2 min 0,0 UV-I 30 W/m 28,3 km/h (4 Bft)
24.12.2013 10:40 11,2 C 8,3 C 80 % 992,0 hPa 0,0 l/m 0 min 2 min 0,0 UV-I 32 W/m 54,1 km/h (7 Bft)
24.12.2013 10:42 11,3 C 8,9 C 79 % 992,2 hPa 0,0 l/m 0 min 2 min 0,0 UV-I 32 W/m 36,0 km/h (5 Bft)
24.12.2013 10:44 11,3 C 8,9 C 79 % 992,0 hPa 0,0 l/m 0 min 2 min 0,0 UV-I 32 W/m 30,9 km/h (5 Bft)
24.12.2013 10:46 11,3 C 9,4 C 79 % 992,2 hPa 0,0 l/m 0 min 2 min 0,0 UV-I 37 W/m 36,0 km/h (5 Bft)
24.12.2013 10:48 11,4 C 8,9 C 79 % 992,1 hPa 0,0 l/m 0 min 2 min 0,0 UV-I 35 W/m 18,0 km/h (3 Bft)
24.12.2013 10:50 11,4 C 9,4 C 79 % 991,9 hPa 0,0 l/m 0 min 2 min 0,0 UV-I 37 W/m 43,8 km/h (6 Bft)
24.12.2013 10:52 11,4 C 9,4 C 79 % 992,1 hPa 0,0 l/m 0 min 2 min 0,0 UV-I 37 W/m 48,9 km/h (6 Bft)
24.12.2013 10:54 11,4 C 9,4 C 79 % 992,2 hPa 0,0 l/m 0 min 2 min 0,0 UV-I 35 W/m 36,0 km/h (5 Bft)
24.12.2013 10:56 11,4 C 9,4 C 79 % 992,0 hPa 0,0 l/m 0 min 2 min 0,0 UV-I 35 W/m 25,7 km/h (4 Bft)
24.12.2013 10:58 11,4 C 9,4 C 79 % 992,1 hPa 0,0 l/m 0 min 2 min 0,0 UV-I 33 W/m 30,9 km/h (5 Bft)
24.12.2013 11:00 11,4 C 9,4 C 79 % 992,1 hPa 0,0 l/m 0 min 2 min 0,0 UV-I 33 W/m 38,6 km/h (5 Bft)
24.12.2013 11:02 11,5 C 10,0 C 78 % 992,7 hPa 0,0 l/m 0 min 2 min 0,0 UV-I 35 W/m 56,6 km/h (7 Bft)
24.12.2013 11:04 11,5 C 10,0 C 78 % 992,3 hPa 0,0 l/m 0 min 2 min 0,0 UV-I 37 W/m 33,5 km/h (5 Bft)
24.12.2013 11:06 11,6 C 10,0 C 78 % 992,1 hPa 0,0 l/m 0 min 2 min 0,0 UV-I 44 W/m 33,5 km/h (5 Bft)
24.12.2013 11:08 11,6 C 10,0 C 78 % 992,1 hPa 0,0 l/m 0 min 0 min 0,0 UV-I 49 W/m 36,0 km/h (5 Bft)
24.12.2013 11:10 11,6 C 10,0 C 78 % 991,9 hPa 0,0 l/m 0 min 2 min 0,0 UV-I 47 W/m 30,9 km/h (5 Bft)
24.12.2013 11:12 11,7 C 10,0 C 78 % 991,9 hPa 0,0 l/m 0 min 2 min 0,0 UV-I 44 W/m 51,5 km/h (7 Bft)
24.12.2013 11:14 11,7 C 10,0 C 77 % 991,9 hPa 0,0 l/m 0 min 0 min 0,0 UV-I 47 W/m 30,9 km/h (5 Bft)
24.12.2013 11:16 11,7 C 10,0 C 77 % 991,8 hPa 0,0 l/m 0 min 2 min 0,0 UV-I 49 W/m 33,5 km/h (5 Bft)
24.12.2013 11:18 11,7 C 10,0 C 78 % 991,8 hPa 0,0 l/m 0 min 0 min 0,0 UV-I 51 W/m 43,8 km/h (6 Bft)
24.12.2013 11:20 11,8 C 10,0 C 77 % 991,9 hPa 0,0 l/m 0 min 2 min 0,0 UV-I 51 W/m 51,5 km/h (7 Bft)
24.12.2013 11:22 11,8 C 10,0 C 77 % 991,9 hPa 0,0 l/m 0 min 2 min 0,0 UV-I 53 W/m 46,3 km/h (6 Bft)
24.12.2013 11:24 11,9 C 10,0 C 77 % 991,6 hPa 0,0 l/m 0 min 2 min 0,0 UV-I 53 W/m 43,8 km/h (6 Bft)
24.12.2013 11:26 11,9 C 10,0 C 77 % 991,6 hPa 0,0 l/m 0 min 0 min 0,0 UV-I 53 W/m 33,5 km/h (5 Bft)
24.12.2013 11:28 11,9 C 10,0 C 76 % 991,7 hPa 0,0 l/m 0 min 0 min 0,0 UV-I 47 W/m 51,5 km/h (7 Bft)
24.12.2013 11:30 12,0 C 10,0 C 76 % 991,7 hPa 0,0 l/m 0 min 0 min 0,0 UV-I 51 W/m 25,7 km/h (4 Bft)
24.12.2013 11:32 12,0 C 10,0 C 76 % 991,7 hPa 0,0 l/m 0 min 0 min 0,0 UV-I 49 W/m 43,8 km/h (6 Bft)
24.12.2013 11:34 12,0 C 10,6 C 76 % 991,7 hPa 0,0 l/m 0 min 0 min 0,0 UV-I 46 W/m 54,1 km/h (7 Bft)
24.12.2013 11:36 12,1 C 10,6 C 76 % 991,8 hPa 0,0 l/m 0 min 0 min 0,0 UV-I 49 W/m 30,9 km/h (5 Bft)
24.12.2013 11:38 12,1 C 10,0 C 76 % 991,7 hPa 0,0 l/m 0 min 0 min 0,0 UV-I 46 W/m 48,9 km/h (6 Bft)
24.12.2013 11:40 12,1 C 10,0 C 76 % 991,8 hPa 0,0 l/m 0 min 0 min 0,0 UV-I 42 W/m 41,2 km/h (6 Bft)
24.12.2013 11:42 12,2 C 10,6 C 76 % 991,6 hPa 0,0 l/m 0 min 0 min 0,0 UV-I 42 W/m 23,2 km/h (4 Bft)
24.12.2013 11:44 12,2 C 10,6 C 75 % 991,7 hPa 0,0 l/m 0 min 2 min 0,0 UV-I 39 W/m 48,9 km/h (6 Bft)
24.12.2013 11:46 12,2 C 10,6 C 75 % 991,6 hPa 0,0 l/m 0 min 0 min 0,0 UV-I 40 W/m 20,6 km/h (4 Bft)
24.12.2013 11:48 12,2 C 10,6 C 75 % 991,7 hPa 0,0 l/m 0 min 0 min 0,0 UV-I 35 W/m 41,2 km/h (6 Bft)
24.12.2013 11:50 12,2 C 10,6 C 75 % 991,6 hPa 0,0 l/m 0 min 0 min 0,0 UV-I 32 W/m 23,2 km/h (4 Bft)
24.12.2013 11:52 12,2 C 10,6 C 75 % 991,6 hPa 0,0 l/m 0 min 0 min 0,0 UV-I 32 W/m 28,3 km/h (4 Bft)
24.12.2013 11:54 12,3 C 10,6 C 75 % 991,6 hPa 0,0 l/m 0 min 0 min 0,0 UV-I 26 W/m 46,3 km/h (6 Bft)
24.12.2013 11:56 12,3 C 10,6 C 75 % 991,6 hPa 0,0 l/m 0 min 0 min 0,0 UV-I 26 W/m 28,3 km/h (4 Bft)
24.12.2013 11:58 12,3 C 10,6 C 75 % 991,6 hPa 0,0 l/m 0 min 0 min 0,0 UV-I 26 W/m 20,6 km/h (4 Bft)
24.12.2013 12:00 12,3 C 10,6 C 75 % 991,5 hPa 0,0 l/m 0 min 0 min 0,0 UV-I 25 W/m 25,7 km/h (4 Bft)
24.12.2013 12:02 12,3 C 10,6 C 75 % 991,7 hPa 0,0 l/m 0 min 0 min 0,0 UV-I 25 W/m 33,5 km/h (5 Bft)
24.12.2013 12:04 12,3 C 10,6 C 75 % 991,4 hPa 0,0 l/m 0 min 2 min 0,0 UV-I 26 W/m 36,0 km/h (5 Bft)
24.12.2013 12:06 12,3 C 10,6 C 75 % 991,5 hPa 0,0 l/m 0 min 0 min 0,0 UV-I 25 W/m 33,5 km/h (5 Bft)
24.12.2013 12:08 12,3 C 10,6 C 75 % 991,6 hPa 0,0 l/m 0 min 0 min 0,0 UV-I 25 W/m 30,9 km/h (5 Bft)
24.12.2013 12:10 12,4 C 10,6 C 75 % 991,6 hPa 0,0 l/m 0 min 2 min 0,0 UV-I 30 W/m 33,5 km/h (5 Bft)
24.12.2013 12:12 12,4 C 10,6 C 75 % 991,4 hPa 0,0 l/m 0 min 2 min 0,0 UV-I 28 W/m 28,3 km/h (4 Bft)
24.12.2013 12:14 12,4 C 10,6 C 75 % 991,4 hPa 0,0 l/m 0 min 2 min 0,0 UV-I 33 W/m 43,8 km/h (6 Bft)
24.12.2013 12:16 12,4 C 10,6 C 75 % 991,3 hPa 0,0 l/m 0 min 0 min 0,0 UV-I 35 W/m 38,6 km/h (5 Bft)
24.12.2013 12:18 12,4 C 10,6 C 75 % 991,4 hPa 0,0 l/m 0 min 2 min 0,0 UV-I 39 W/m 36,0 km/h (5 Bft)
24.12.2013 12:20 12,4 C 10,6 C 75 % 991,4 hPa 0,0 l/m 0 min 0 min 0,0 UV-I 37 W/m 46,3 km/h (6 Bft)
24.12.2013 12:22 12,4 C 10,6 C 75 % 991,3 hPa 0,0 l/m 0 min 0 min 0,0 UV-I 33 W/m 28,3 km/h (4 Bft)
24.12.2013 12:24 12,4 C 10,6 C 75 % 991,3 hPa 0,0 l/m 0 min 0 min 0,0 UV-I 26 W/m 36,0 km/h (5 Bft)
24.12.2013 12:26 12,5 C 10,6 C 75 % 991,4 hPa 0,0 l/m 0 min 0 min 0,0 UV-I 25 W/m 30,9 km/h (5 Bft)
24.12.2013 12:28 12,4 C 10,6 C 75 % 991,3 hPa 0,0 l/m 0 min 0 min 0,0 UV-I 25 W/m 28,3 km/h (4 Bft)
24.12.2013 12:30 12,5 C 10,6 C 75 % 991,2 hPa 0,0 l/m 0 min 0 min 0,0 UV-I 25 W/m 33,5 km/h (5 Bft)
24.12.2013 12:32 12,5 C 10,6 C 75 % 991,2 hPa 0,0 l/m 0 min 2 min 0,0 UV-I 26 W/m 25,7 km/h (4 Bft)
24.12.2013 12:34 12,5 C 10,0 C 76 % 991,2 hPa 0,0 l/m 0 min 2 min 0,0 UV-I 26 W/m 20,6 km/h (4 Bft)
24.12.2013 12:36 12,5 C 10,0 C 76 % 991,1 hPa 0,0 l/m 0 min 2 min 0,0 UV-I 26 W/m 28,3 km/h (4 Bft)
24.12.2013 12:38 12,4 C 10,0 C 76 % 991,2 hPa 0,0 l/m 0 min 2 min 0,0 UV-I 28 W/m 20,6 km/h (4 Bft)
24.12.2013 12:40 12,4 C 10,0 C 76 % 991,2 hPa 0,0 l/m 0 min 0 min 0,0 UV-I 26 W/m 25,7 km/h (4 Bft)
24.12.2013 12:42 12,4 C 10,0 C 76 % 991,1 hPa 0,0 l/m 0 min 2 min 0,0 UV-I 25 W/m 33,5 km/h (5 Bft)
24.12.2013 12:44 12,4 C 10,0 C 76 % 991,3 hPa 0,0 l/m 0 min 0 min 0,0 UV-I 21 W/m 23,2 km/h (4 Bft)
24.12.2013 12:46 12,4 C 10,6 C 76 % 991,0 hPa 0,0 l/m 0 min 0 min 0,0 UV-I 23 W/m 28,3 km/h (4 Bft)
24.12.2013 12:48 12,4 C 10,6 C 76 % 991,1 hPa 0,0 l/m 0 min 2 min 0,0 UV-I 25 W/m 28,3 km/h (4 Bft)
24.12.2013 12:50 12,4 C 10,6 C 76 % 991,3 hPa 0,0 l/m 0 min 0 min 0,0 UV-I 28 W/m 41,2 km/h (6 Bft)
24.12.2013 12:52 12,4 C 10,6 C 76 % 991,0 hPa 0,0 l/m 0 min 2 min 0,0 UV-I 26 W/m 41,2 km/h (6 Bft)
24.12.2013 12:54 12,4 C 10,6 C 76 % 991,1 hPa 0,0 l/m 0 min 0 min 0,0 UV-I 26 W/m 30,9 km/h (5 Bft)
24.12.2013 12:56 12,4 C 10,6 C 76 % 991,0 hPa 0,0 l/m 0 min 2 min 0,0 UV-I 25 W/m 59,2 km/h (7 Bft)
24.12.2013 12:58 12,5 C 10,0 C 76 % 991,1 hPa 0,0 l/m 0 min 2 min 0,0 UV-I 33 W/m 46,3 km/h (6 Bft)
24.12.2013 13:00 12,5 C 10,6 C 75 % 991,0 hPa 0,0 l/m 0 min 2 min 0,0 UV-I 33 W/m 46,3 km/h (6 Bft)
24.12.2013 13:02 12,6 C 10,6 C 75 % 990,9 hPa 0,0 l/m 0 min 2 min 0,0 UV-I 30 W/m 51,5 km/h (7 Bft)
24.12.2013 13:04 12,6 C 10,6 C 75 % 990,8 hPa 0,0 l/m 0 min 0 min 0,0 UV-I 26 W/m 38,6 km/h (5 Bft)
24.12.2013 13:06 12,6 C 10,6 C 75 % 990,9 hPa 0,0 l/m 0 min 2 min 0,0 UV-I 26 W/m 43,8 km/h (6 Bft)
24.12.2013 13:08 12,6 C 10,6 C 75 % 990,8 hPa 0,0 l/m 0 min 2 min 0,0 UV-I 30 W/m 18,0 km/h (3 Bft)
24.12.2013 13:10 12,6 C 10,6 C 75 % 990,6 hPa 0,0 l/m 0 min 0 min 0,0 UV-I 30 W/m 43,8 km/h (6 Bft)
24.12.2013 13:12 12,6 C 10,6 C 75 % 990,6 hPa 0,0 l/m 0 min 2 min 0,0 UV-I 28 W/m 36,0 km/h (5 Bft)
24.12.2013 13:14 12,6 C 10,6 C 75 % 990,6 hPa 0,0 l/m 0 min 2 min 0,0 UV-I 32 W/m 30,9 km/h (5 Bft)
24.12.2013 13:16 12,6 C 10,6 C 76 % 990,7 hPa 0,0 l/m 0 min 2 min 0,0 UV-I 33 W/m 25,7 km/h (4 Bft)
24.12.2013 13:18 12,6 C 10,6 C 76 % 990,6 hPa 0,0 l/m 0 min 2 min 0,0 UV-I 33 W/m 28,3 km/h (4 Bft)
24.12.2013 13:20 12,6 C 10,6 C 76 % 990,6 hPa 0,0 l/m 0 min 2 min 0,0 UV-I 37 W/m 43,8 km/h (6 Bft)
24.12.2013 13:22 12,6 C 10,0 C 76 % 990,5 hPa 0,0 l/m 0 min 2 min 0,0 UV-I 35 W/m 48,9 km/h (6 Bft)
24.12.2013 13:24 12,6 C 10,0 C 77 % 990,6 hPa 0,0 l/m 0 min 2 min 0,0 UV-I 37 W/m 36,0 km/h (5 Bft)
24.12.2013 13:26 12,6 C 9,4 C 77 % 990,6 hPa 0,0 l/m 0 min 2 min 0,0 UV-I 42 W/m 43,8 km/h (6 Bft)
24.12.2013 13:28 12,5 C 9,4 C 78 % 990,3 hPa 0,0 l/m 0 min 2 min 0,0 UV-I 49 W/m 25,7 km/h (4 Bft)
24.12.2013 13:30 12,5 C 9,4 C 78 % 990,5 hPa 0,0 l/m 0 min 2 min 0,0 UV-I 47 W/m 28,3 km/h (4 Bft)
24.12.2013 13:32 12,4 C 9,4 C 78 % 990,5 hPa 0,0 l/m 0 min 2 min 0,0 UV-I 44 W/m 41,2 km/h (6 Bft)
24.12.2013 13:34 12,4 C 9,4 C 78 % 990,3 hPa 0,0 l/m 0 min 2 min 0,0 UV-I 40 W/m 36,0 km/h (5 Bft)
24.12.2013 13:36 12,3 C 9,4 C 78 % 990,3 hPa 0,0 l/m 0 min 2 min 0,0 UV-I 33 W/m 41,2 km/h (6 Bft)
24.12.2013 13:38 12,3 C 9,4 C 79 % 990,4 hPa 0,0 l/m 0 min 2 min 0,0 UV-I 33 W/m 25,7 km/h (4 Bft)
24.12.2013 13:40 12,3 C 9,4 C 79 % 990,3 hPa 0,0 l/m 0 min 2 min 0,0 UV-I 37 W/m 41,2 km/h (6 Bft)
24.12.2013 13:42 12,3 C 9,4 C 79 % 990,3 hPa 0,0 l/m 0 min 2 min 0,0 UV-I 44 W/m 30,9 km/h (5 Bft)
24.12.2013 13:44 12,3 C 10,0 C 79 % 990,2 hPa 0,0 l/m 0 min 2 min 0,0 UV-I 42 W/m 33,5 km/h (5 Bft)
24.12.2013 13:46 12,2 C 10,0 C 79 % 990,1 hPa 0,2 l/m 0 min 2 min 0,0 UV-I 42 W/m 30,9 km/h (5 Bft)
24.12.2013 13:48 12,2 C 10,0 C 79 % 990,2 hPa 0,0 l/m 0 min 2 min 0,0 UV-I 44 W/m 51,5 km/h (7 Bft)
24.12.2013 13:50 12,2 C 10,0 C 79 % 990,0 hPa 0,0 l/m 0 min 2 min 0,0 UV-I 47 W/m 41,2 km/h (6 Bft)
24.12.2013 13:52 12,2 C 10,0 C 79 % 990,2 hPa 0,0 l/m 0 min 2 min 0,0 UV-I 47 W/m 51,5 km/h (7 Bft)
24.12.2013 13:54 12,2 C 10,0 C 79 % 990,0 hPa 0,0 l/m 0 min 2 min 0,0 UV-I 44 W/m 43,8 km/h (6 Bft)
24.12.2013 13:56 12,3 C 10,0 C 79 % 990,2 hPa 0,0 l/m 0 min 2 min 0,0 UV-I 44 W/m 23,2 km/h (4 Bft)
24.12.2013 13:58 12,3 C 10,0 C 79 % 990,1 hPa 0,0 l/m 0 min 2 min 0,0 UV-I 44 W/m 23,2 km/h (4 Bft)
24.12.2013 14:00 12,2 C 10,0 C 79 % 990,1 hPa 0,0 l/m 0 min 2 min 0,0 UV-I 46 W/m 41,2 km/h (6 Bft)
24.12.2013 14:02 12,3 C 10,0 C 79 % 990,1 hPa 0,0 l/m 0 min 2 min 0,0 UV-I 47 W/m 41,2 km/h (6 Bft)
24.12.2013 14:04 12,3 C 10,0 C 79 % 990,2 hPa 0,0 l/m 0 min 2 min 0,0 UV-I 49 W/m 28,3 km/h (4 Bft)
24.12.2013 14:06 12,3 C 10,0 C 79 % 990,1 hPa 0,0 l/m 0 min 2 min 0,0 UV-I 53 W/m 28,3 km/h (4 Bft)
24.12.2013 14:08 12,3 C 10,0 C 79 % 990,0 hPa 0,0 l/m 0 min 2 min 0,0 UV-I 47 W/m 23,2 km/h (4 Bft)
24.12.2013 14:10 12,3 C 10,0 C 79 % 989,9 hPa 0,0 l/m 0 min 2 min 0,0 UV-I 47 W/m 30,9 km/h (5 Bft)
24.12.2013 14:12 12,3 C 10,0 C 79 % 989,9 hPa 0,0 l/m 0 min 2 min 0,0 UV-I 47 W/m 25,7 km/h (4 Bft)
24.12.2013 14:14 12,3 C 10,6 C 78 % 989,9 hPa 0,0 l/m 0 min 2 min 0,0 UV-I 47 W/m 36,0 km/h (5 Bft)
24.12.2013 14:16 12,4 C 10,6 C 78 % 990,1 hPa 0,0 l/m 0 min 2 min 0,0 UV-I 44 W/m 38,6 km/h (5 Bft)
24.12.2013 14:18 12,4 C 10,6 C 78 % 989,8 hPa 0,0 l/m 0 min 2 min 0,0 UV-I 40 W/m 38,6 km/h (5 Bft)
24.12.2013 14:20 12,4 C 10,6 C 78 % 990,1 hPa 0,0 l/m 0 min 2 min 0,0 UV-I 35 W/m 54,1 km/h (7 Bft)
24.12.2013 14:22 12,5 C 10,6 C 77 % 990,1 hPa 0,0 l/m 0 min 2 min 0,0 UV-I 37 W/m 38,6 km/h (5 Bft)
24.12.2013 14:24 12,5 C 10,6 C 77 % 990,0 hPa 0,0 l/m 0 min 2 min 0,0 UV-I 39 W/m 18,0 km/h (3 Bft)
24.12.2013 14:26 12,6 C 10,6 C 77 % 990,2 hPa 0,0 l/m 0 min 2 min 0,0 UV-I 39 W/m 30,9 km/h (5 Bft)
24.12.2013 14:28 12,6 C 10,6 C 77 % 989,9 hPa 0,0 l/m 0 min 2 min 0,0 UV-I 37 W/m 30,9 km/h (5 Bft)
24.12.2013 14:30 12,6 C 10,6 C 77 % 989,9 hPa 0,0 l/m 0 min 2 min 0,0 UV-I 33 W/m 36,0 km/h (5 Bft)
24.12.2013 14:32 12,7 C 11,1 C 76 % 989,7 hPa 0,0 l/m 0 min 2 min 0,0 UV-I 30 W/m 30,9 km/h (5 Bft)
24.12.2013 14:34 12,7 C 10,6 C 76 % 989,9 hPa 0,0 l/m 0 min 0 min 0,0 UV-I 28 W/m 28,3 km/h (4 Bft)
24.12.2013 14:36 12,7 C 11,1 C 76 % 989,8 hPa 0,0 l/m 0 min 0 min 0,0 UV-I 26 W/m 33,5 km/h (5 Bft)
24.12.2013 14:38 12,7 C 10,6 C 76 % 989,9 hPa 0,0 l/m 0 min 2 min 0,0 UV-I 25 W/m 38,6 km/h (5 Bft)
24.12.2013 14:40 12,7 C 11,1 C 76 % 989,7 hPa 0,0 l/m 0 min 2 min 0,0 UV-I 25 W/m 38,6 km/h (5 Bft)
24.12.2013 14:42 12,7 C 10,6 C 76 % 990,0 hPa 0,0 l/m 0 min 0 min 0,0 UV-I 23 W/m 38,6 km/h (5 Bft)
24.12.2013 14:44 12,7 C 11,1 C 76 % 989,7 hPa 0,0 l/m 0 min 0 min 0,0 UV-I 23 W/m 38,6 km/h (5 Bft)
24.12.2013 14:46 12,7 C 11,1 C 76 % 989,7 hPa 0,0 l/m 0 min 0 min 0,0 UV-I 25 W/m 20,6 km/h (4 Bft)
24.12.2013 14:48 12,7 C 11,1 C 76 % 989,9 hPa 0,0 l/m 0 min 0 min 0,0 UV-I 25 W/m 25,7 km/h (4 Bft)
24.12.2013 14:50 12,7 C 11,1 C 76 % 989,8 hPa 0,0 l/m 0 min 0 min 0,0 UV-I 26 W/m 36,0 km/h (5 Bft)
24.12.2013 14:52 12,7 C 11,1 C 76 % 989,9 hPa 0,0 l/m 0 min 0 min 0,0 UV-I 26 W/m 38,6 km/h (5 Bft)
24.12.2013 14:54 12,7 C 11,1 C 76 % 989,7 hPa 0,0 l/m 0 min 0 min 0,0 UV-I 25 W/m 33,5 km/h (5 Bft)
24.12.2013 14:56 12,8 C 11,1 C 76 % 989,7 hPa 0,0 l/m 0 min 0 min 0,0 UV-I 21 W/m 33,5 km/h (5 Bft)
24.12.2013 14:58 12,7 C 11,1 C 76 % 989,8 hPa 0,0 l/m 0 min 0 min 0,0 UV-I 21 W/m 20,6 km/h (4 Bft)
24.12.2013 15:00 12,7 C 11,1 C 76 % 989,7 hPa 0,0 l/m 0 min 0 min 0,0 UV-I 23 W/m 43,8 km/h (6 Bft)
24.12.2013 15:02 12,8 C 11,1 C 76 % 989,7 hPa 0,0 l/m 0 min 0 min 0,0 UV-I 23 W/m 20,6 km/h (4 Bft)
24.12.2013 15:04 12,8 C 11,1 C 75 % 989,5 hPa 0,0 l/m 0 min 0 min 0,0 UV-I 25 W/m 28,3 km/h (4 Bft)
24.12.2013 15:06 12,8 C 11,1 C 75 % 989,5 hPa 0,0 l/m 0 min 2 min 0,0 UV-I 26 W/m 43,8 km/h (6 Bft)
24.12.2013 15:08 12,8 C 11,1 C 76 % 989,6 hPa 0,0 l/m 0 min 2 min 0,0 UV-I 26 W/m 23,2 km/h (4 Bft)
24.12.2013 15:10 12,8 C 10,6 C 76 % 989,5 hPa 0,0 l/m 0 min 2 min 0,0 UV-I 25 W/m 25,7 km/h (4 Bft)
24.12.2013 15:12 12,8 C 10,6 C 76 % 989,6 hPa 0,0 l/m 0 min 2 min 0,0 UV-I 23 W/m 36,0 km/h (5 Bft)
24.12.2013 15:14 12,8 C 10,6 C 76 % 989,5 hPa 0,0 l/m 0 min 2 min 0,0 UV-I 23 W/m 23,2 km/h (4 Bft)
24.12.2013 15:16 12,8 C 10,6 C 76 % 989,5 hPa 0,0 l/m 0 min 2 min 0,0 UV-I 23 W/m 38,6 km/h (5 Bft)
24.12.2013 15:18 12,8 C 10,6 C 76 % 989,5 hPa 0,0 l/m 0 min 2 min 0,0 UV-I 23 W/m 20,6 km/h (4 Bft)
24.12.2013 15:20 12,8 C 10,6 C 76 % 989,5 hPa 0,0 l/m 0 min 2 min 0,0 UV-I 25 W/m 25,7 km/h (4 Bft)
24.12.2013 15:22 12,7 C 10,6 C 76 % 989,4 hPa 0,0 l/m 0 min 2 min 0,0 UV-I 21 W/m 25,7 km/h (4 Bft)
24.12.2013 15:24 12,7 C 10,6 C 76 % 989,5 hPa 0,0 l/m 0 min 2 min 0,0 UV-I 21 W/m 41,2 km/h (6 Bft)
24.12.2013 15:26 12,7 C 10,6 C 77 % 989,3 hPa 0,0 l/m 0 min 2 min 0,0 UV-I 21 W/m 30,9 km/h (5 Bft)
24.12.2013 15:28 12,7 C 10,6 C 77 % 989,4 hPa 0,0 l/m 0 min 2 min 0,0 UV-I 21 W/m 18,0 km/h (3 Bft)
24.12.2013 15:30 12,7 C 10,6 C 77 % 989,3 hPa 0,0 l/m 0 min 2 min 0,0 UV-I 21 W/m 51,5 km/h (7 Bft)
24.12.2013 15:32 12,7 C 10,6 C 77 % 989,1 hPa 0,0 l/m 0 min 2 min 0,0 UV-I 19 W/m 25,7 km/h (4 Bft)
24.12.2013 15:34 12,7 C 10,6 C 77 % 989,2 hPa 0,0 l/m 0 min 0 min 0,0 UV-I 21 W/m 18,0 km/h (3 Bft)
24.12.2013 15:36 12,7 C 10,6 C 79 % 989,3 hPa 0,0 l/m 0 min 0 min 0,0 UV-I 21 W/m 25,7 km/h (4 Bft)
24.12.2013 15:38 12,7 C 10,6 C 77 % 989,3 hPa 0,0 l/m 0 min 0 min 0,0 UV-I 18 W/m 30,9 km/h (5 Bft)
24.12.2013 15:40 12,7 C 10,6 C 77 % 988,9 hPa 0,0 l/m 0 min 0 min 0,0 UV-I 16 W/m 38,6 km/h (5 Bft)
24.12.2013 15:42 12,7 C 10,6 C 77 % 988,9 hPa 0,0 l/m 0 min 2 min 0,0 UV-I 16 W/m 41,2 km/h (6 Bft)
24.12.2013 15:44 12,7 C 10,6 C 77 % 989,1 hPa 0,0 l/m 0 min 0 min 0,0 UV-I 14 W/m 23,2 km/h (4 Bft)
24.12.2013 15:46 12,7 C 10,6 C 77 % 989,1 hPa 0,0 l/m 0 min 2 min 0,0 UV-I 14 W/m 18,0 km/h (3 Bft)
24.12.2013 15:48 12,7 C 10,6 C 77 % 989,0 hPa 0,0 l/m 0 min 2 min 0,0 UV-I 12 W/m 43,8 km/h (6 Bft)
24.12.2013 15:50 12,7 C 11,1 C 77 % 989,0 hPa 0,0 l/m 0 min 0 min 0,0 UV-I 14 W/m 25,7 km/h (4 Bft)
24.12.2013 15:52 12,7 C 11,1 C 77 % 988,9 hPa 0,0 l/m 0 min 2 min 0,0 UV-I 12 W/m 33,5 km/h (5 Bft)
24.12.2013 15:54 12,7 C 11,1 C 77 % 989,1 hPa 0,0 l/m 0 min 0 min 0,0 UV-I 11 W/m 28,3 km/h (4 Bft)
24.12.2013 15:56 12,7 C 11,1 C 77 % 989,0 hPa 0,0 l/m 0 min 0 min 0,0 UV-I 12 W/m 38,6 km/h (5 Bft)
24.12.2013 15:58 12,7 C 11,1 C 76 % 989,0 hPa 0,0 l/m 0 min 0 min 0,0 UV-I 11 W/m 41,2 km/h (6 Bft)
24.12.2013 16:00 12,8 C 11,1 C 76 % 989,1 hPa 0,0 l/m 0 min 0 min 0,0 UV-I 11 W/m 25,7 km/h (4 Bft)
24.12.2013 16:02 12,8 C 11,1 C 76 % 988,8 hPa 0,0 l/m 0 min 0 min 0,0 UV-I 9 W/m 38,6 km/h (5 Bft)
24.12.2013 16:04 12,8 C 11,1 C 76 % 989,0 hPa 0,0 l/m 0 min 0 min 0,0 UV-I 7 W/m 30,9 km/h (5 Bft)
24.12.2013 16:06 12,8 C 11,1 C 76 % 988,9 hPa 0,0 l/m 0 min 0 min 0,0 UV-I 7 W/m 33,5 km/h (5 Bft)
24.12.2013 16:08 12,8 C 11,1 C 76 % 988,9 hPa 0,0 l/m 0 min 0 min 0,0 UV-I 7 W/m 41,2 km/h (6 Bft)
24.12.2013 16:10 12,8 C 11,1 C 76 % 988,8 hPa 0,0 l/m 0 min 0 min 0,0 UV-I 7 W/m 36,0 km/h (5 Bft)
24.12.2013 16:12 12,8 C 11,1 C 76 % 988,8 hPa 0,0 l/m 0 min 0 min 0,0 UV-I 7 W/m 41,2 km/h (6 Bft)
24.12.2013 16:14 12,8 C 11,1 C 76 % 988,7 hPa 0,0 l/m 0 min 0 min 0,0 UV-I 5 W/m 30,9 km/h (5 Bft)
24.12.2013 16:16 12,8 C 11,1 C 76 % 988,7 hPa 0,0 l/m 0 min 0 min 0,0 UV-I 5 W/m 33,5 km/h (5 Bft)
24.12.2013 16:18 12,8 C 11,1 C 76 % 988,8 hPa 0,0 l/m 0 min 0 min 0,0 UV-I 0 W/m 33,5 km/h (5 Bft)
24.12.2013 16:20 12,8 C 11,1 C 76 % 988,9 hPa 0,0 l/m 0 min 0 min 0,0 UV-I 0 W/m 30,9 km/h (5 Bft)
24.12.2013 16:22 12,8 C 11,1 C 76 % 988,8 hPa 0,0 l/m 0 min 0 min 0,0 UV-I 0 W/m 41,2 km/h (6 Bft)
24.12.2013 16:24 12,9 C 11,1 C 76 % 988,8 hPa 0,0 l/m 0 min 0 min 0,0 UV-I 0 W/m 30,9 km/h (5 Bft)
24.12.2013 16:26 12,9 C 11,1 C 76 % 988,8 hPa 0,0 l/m 0 min 0 min 0,0 UV-I 0 W/m 33,5 km/h (5 Bft)
24.12.2013 16:28 12,9 C 11,1 C 76 % 988,7 hPa 0,0 l/m 0 min 0 min 0,0 UV-I 0 W/m 38,6 km/h (5 Bft)
24.12.2013 16:30 12,9 C 11,1 C 76 % 988,7 hPa 0,0 l/m 0 min 0 min 0,0 UV-I 0 W/m 33,5 km/h (5 Bft)
24.12.2013 16:32 12,9 C 11,1 C 76 % 988,7 hPa 0,0 l/m 0 min 0 min 0,0 UV-I 0 W/m 20,6 km/h (4 Bft)
24.12.2013 16:34 12,9 C 11,1 C 76 % 988,7 hPa 0,0 l/m 0 min 2 min 0,0 UV-I 0 W/m 38,6 km/h (5 Bft)
24.12.2013 16:36 12,9 C 11,1 C 76 % 988,5 hPa 0,0 l/m 0 min 2 min 0,0 UV-I 0 W/m 33,5 km/h (5 Bft)
24.12.2013 16:38 12,9 C 11,1 C 76 % 988,7 hPa 0,0 l/m 0 min 2 min 0,0 UV-I 0 W/m 36,0 km/h (5 Bft)
24.12.2013 16:40 12,9 C 10,6 C 76 % 988,7 hPa 0,0 l/m 0 min 2 min 0,0 UV-I 0 W/m 23,2 km/h (4 Bft)
24.12.2013 16:42 12,9 C 10,6 C 76 % 988,6 hPa 0,0 l/m 0 min 0 min 0,0 UV-I 0 W/m 51,5 km/h (7 Bft)
24.12.2013 16:44 12,9 C 10,6 C 76 % 988,6 hPa 0,0 l/m 0 min 0 min 0,0 UV-I 0 W/m 23,2 km/h (4 Bft)
24.12.2013 16:46 12,9 C 11,1 C 76 % 988,6 hPa 0,0 l/m 0 min 2 min 0,0 UV-I 0 W/m 36,0 km/h (5 Bft)
24.12.2013 16:48 12,9 C 11,1 C 76 % 988,7 hPa 0,0 l/m 0 min 2 min 0,0 UV-I 0 W/m 30,9 km/h (5 Bft)
24.12.2013 16:50 12,9 C 11,1 C 76 % 988,6 hPa 0,0 l/m 0 min 0 min 0,0 UV-I 0 W/m 28,3 km/h (4 Bft)
24.12.2013 16:52 12,9 C 11,1 C 76 % 988,7 hPa 0,0 l/m 0 min 0 min 0,0 UV-I 0 W/m 30,9 km/h (5 Bft)
24.12.2013 16:54 12,9 C 11,1 C 76 % 988,6 hPa 0,0 l/m 0 min 2 min 0,0 UV-I 0 W/m 20,6 km/h (4 Bft)
24.12.2013 16:56 12,9 C 11,1 C 76 % 988,8 hPa 0,0 l/m 0 min 2 min 0,0 UV-I 0 W/m 33,5 km/h (5 Bft)
24.12.2013 16:58 12,9 C 10,6 C 76 % 988,6 hPa 0,0 l/m 0 min 2 min 0,0 UV-I 0 W/m 48,9 km/h (6 Bft)
24.12.2013 17:00 12,9 C 10,6 C 76 % 988,8 hPa 0,0 l/m 0 min 2 min 0,0 UV-I 0 W/m 48,9 km/h (6 Bft)
24.12.2013 17:02 12,9 C 10,6 C 76 % 988,6 hPa 0,0 l/m 0 min 2 min 0,0 UV-I 0 W/m 23,2 km/h (4 Bft)
24.12.2013 17:04 12,8 C 10,6 C 77 % 988,5 hPa 0,0 l/m 0 min 2 min 0,0 UV-I 0 W/m 25,7 km/h (4 Bft)
24.12.2013 17:06 12,8 C 10,6 C 77 % 988,6 hPa 0,0 l/m 0 min 2 min 0,0 UV-I 0 W/m 28,3 km/h (4 Bft)
24.12.2013 17:08 12,8 C 10,6 C 77 % 988,6 hPa 0,0 l/m 0 min 2 min 0,0 UV-I 0 W/m 30,9 km/h (5 Bft)
24.12.2013 17:10 12,8 C 10,6 C 77 % 988,5 hPa 0,0 l/m 0 min 0 min 0,0 UV-I 0 W/m 33,5 km/h (5 Bft)
24.12.2013 17:12 12,8 C 10,6 C 77 % 988,6 hPa 0,0 l/m 0 min 2 min 0,0 UV-I 0 W/m 30,9 km/h (5 Bft)
24.12.2013 17:14 12,7 C 10,6 C 77 % 988,4 hPa 0,0 l/m 0 min 0 min 0,0 UV-I 0 W/m 33,5 km/h (5 Bft)
24.12.2013 17:16 12,7 C 10,6 C 77 % 988,7 hPa 0,0 l/m 0 min 0 min 0,0 UV-I 0 W/m 36,0 km/h (5 Bft)
24.12.2013 17:18 12,7 C 10,6 C 77 % 988,6 hPa 0,0 l/m 0 min 2 min 0,0 UV-I 0 W/m 28,3 km/h (4 Bft)
24.12.2013 17:20 12,7 C 10,6 C 77 % 988,6 hPa 0,0 l/m 0 min 2 min 0,0 UV-I 0 W/m 20,6 km/h (4 Bft)
24.12.2013 17:22 12,7 C 10,0 C 77 % 988,7 hPa 0,0 l/m 0 min 2 min 0,0 UV-I 0 W/m 38,6 km/h (5 Bft)
24.12.2013 17:24 12,7 C 10,0 C 78 % 988,6 hPa 0,0 l/m 0 min 2 min 0,0 UV-I 0 W/m 23,2 km/h (4 Bft)
24.12.2013 17:26 12,7 C 10,0 C 78 % 988,6 hPa 0,0 l/m 0 min 2 min 0,0 UV-I 0 W/m 30,9 km/h (5 Bft)
24.12.2013 17:28 12,6 C 10,0 C 78 % 988,7 hPa 0,0 l/m 0 min 2 min 0,0 UV-I 0 W/m 30,9 km/h (5 Bft)
24.12.2013 17:30 12,6 C 10,0 C 79 % 988,6 hPa 0,0 l/m 0 min 2 min 0,0 UV-I 0 W/m 33,5 km/h (5 Bft)
24.12.2013 17:32 12,6 C 9,4 C 79 % 988,5 hPa 0,0 l/m 0 min 2 min 0,0 UV-I 0 W/m 33,5 km/h (5 Bft)
24.12.2013 17:34 12,6 C 9,4 C 79 % 988,4 hPa 0,0 l/m 0 min 2 min 0,0 UV-I 0 W/m 28,3 km/h (4 Bft)
24.12.2013 17:36 12,5 C 9,4 C 79 % 988,6 hPa 0,0 l/m 0 min 2 min 0,0 UV-I 0 W/m 48,9 km/h (6 Bft)
24.12.2013 17:38 12,5 C 9,4 C 79 % 988,4 hPa 0,0 l/m 0 min 2 min 0,0 UV-I 0 W/m 28,3 km/h (4 Bft)
24.12.2013 17:40 12,5 C 9,4 C 79 % 988,6 hPa 0,0 l/m 0 min 2 min 0,0 UV-I 0 W/m 38,6 km/h (5 Bft)
24.12.2013 17:42 12,4 C 9,4 C 80 % 988,6 hPa 0,0 l/m 0 min 2 min 0,0 UV-I 0 W/m 46,3 km/h (6 Bft)
24.12.2013 17:44 12,4 C 9,4 C 80 % 988,7 hPa 0,0 l/m 0 min 2 min 0,0 UV-I 0 W/m 23,2 km/h (4 Bft)
24.12.2013 17:46 12,4 C 9,4 C 80 % 988,4 hPa 0,0 l/m 0 min 2 min 0,0 UV-I 0 W/m 23,2 km/h (4 Bft)
24.12.2013 17:48 12,4 C 9,4 C 80 % 988,7 hPa 0,0 l/m 0 min 2 min 0,0 UV-I 0 W/m 30,9 km/h (5 Bft)
24.12.2013 17:50 12,3 C 9,4 C 81 % 988,7 hPa 0,2 l/m 0 min 2 min 0,0 UV-I 0 W/m 25,7 km/h (4 Bft)
24.12.2013 17:52 12,3 C 9,4 C 81 % 988,7 hPa 0,0 l/m 0 min 2 min 0,0 UV-I 0 W/m 41,2 km/h (6 Bft)
24.12.2013 17:54 12,3 C 9,4 C 81 % 988,7 hPa 0,0 l/m 0 min 2 min 0,0 UV-I 0 W/m 30,9 km/h (5 Bft)
24.12.2013 17:56 12,3 C 9,4 C 81 % 988,7 hPa 0,0 l/m 0 min 2 min 0,0 UV-I 0 W/m 28,3 km/h (4 Bft)
24.12.2013 17:58 12,2 C 9,4 C 81 % 988,5 hPa 0,0 l/m 0 min 2 min 0,0 UV-I 0 W/m 28,3 km/h (4 Bft)
24.12.2013 18:00 12,2 C 9,4 C 82 % 988,6 hPa 0,0 l/m 0 min 2 min 0,0 UV-I 0 W/m 23,2 km/h (4 Bft)
24.12.2013 18:02 12,2 C 9,4 C 82 % 988,5 hPa 0,0 l/m 0 min 2 min 0,0 UV-I 0 W/m 28,3 km/h (4 Bft)
24.12.2013 18:04 12,2 C 9,4 C 82 % 988,5 hPa 0,0 l/m 0 min 2 min 0,0 UV-I 0 W/m 38,6 km/h (5 Bft)
24.12.2013 18:06 12,1 C 9,4 C 82 % 988,4 hPa 0,0 l/m 0 min 2 min 0,0 UV-I 0 W/m 18,0 km/h (3 Bft)
24.12.2013 18:08 12,1 C 8,9 C 82 % 988,3 hPa 0,0 l/m 0 min 2 min 0,0 UV-I 0 W/m 18,0 km/h (3 Bft)
24.12.2013 18:10 12,1 C 8,9 C 82 % 988,3 hPa 0,0 l/m 0 min 2 min 0,0 UV-I 0 W/m 33,5 km/h (5 Bft)
24.12.2013 18:12 12,1 C 9,4 C 82 % 988,2 hPa 0,0 l/m 0 min 2 min 0,0 UV-I 0 W/m 20,6 km/h (4 Bft)
24.12.2013 18:14 12,0 C 9,4 C 82 % 988,2 hPa 0,0 l/m 0 min 2 min 0,0 UV-I 0 W/m 23,2 km/h (4 Bft)
24.12.2013 18:16 12,0 C 9,4 C 82 % 988,3 hPa 0,0 l/m 0 min 2 min 0,0 UV-I 0 W/m 33,5 km/h (5 Bft)
24.12.2013 18:18 12,0 C 9,4 C 82 % 988,3 hPa 0,0 l/m 0 min 2 min 0,0 UV-I 0 W/m 33,5 km/h (5 Bft)
24.12.2013 18:20 12,0 C 9,4 C 82 % 988,4 hPa 0,0 l/m 0 min 2 min 0,0 UV-I 0 W/m 33,5 km/h (5 Bft)
24.12.2013 18:22 12,1 C 9,4 C 82 % 988,2 hPa 0,0 l/m 0 min 2 min 0,0 UV-I 0 W/m 23,2 km/h (4 Bft)
24.12.2013 18:24 12,1 C 9,4 C 82 % 988,3 hPa 0,0 l/m 0 min 2 min 0,0 UV-I 0 W/m 25,7 km/h (4 Bft)
24.12.2013 18:26 12,1 C 9,4 C 82 % 988,4 hPa 0,0 l/m 0 min 2 min 0,0 UV-I 0 W/m 30,9 km/h (5 Bft)
24.12.2013 18:28 12,1 C 9,4 C 82 % 988,1 hPa 0,0 l/m 0 min 2 min 0,0 UV-I 0 W/m 33,5 km/h (5 Bft)
24.12.2013 18:30 12,1 C 9,4 C 82 % 988,1 hPa 0,0 l/m 0 min 2 min 0,0 UV-I 0 W/m 25,7 km/h (4 Bft)
24.12.2013 18:32 12,1 C 9,4 C 82 % 988,2 hPa 0,0 l/m 0 min 2 min 0,0 UV-I 0 W/m 33,5 km/h (5 Bft)
24.12.2013 18:34 12,1 C 9,4 C 82 % 988,2 hPa 0,0 l/m 0 min 2 min 0,0 UV-I 0 W/m 20,6 km/h (4 Bft)
24.12.2013 18:36 12,1 C 9,4 C 82 % 988,0 hPa 0,0 l/m 0 min 2 min 0,0 UV-I 0 W/m 28,3 km/h (4 Bft)
24.12.2013 18:38 12,1 C 9,4 C 82 % 988,2 hPa 0,0 l/m 0 min 2 min 0,0 UV-I 0 W/m 28,3 km/h (4 Bft)
24.12.2013 18:40 12,1 C 9,4 C 82 % 988,2 hPa 0,0 l/m 0 min 2 min 0,0 UV-I 0 W/m 25,7 km/h (4 Bft)
24.12.2013 18:42 12,1 C 8,9 C 83 % 988,4 hPa 0,0 l/m 0 min 2 min 0,0 UV-I 0 W/m 38,6 km/h (5 Bft)
24.12.2013 18:44 12,1 C 8,9 C 83 % 988,2 hPa 0,0 l/m 0 min 2 min 0,0 UV-I 0 W/m 36,0 km/h (5 Bft)
24.12.2013 18:46 12,1 C 8,9 C 83 % 988,3 hPa 0,0 l/m 0 min 2 min 0,0 UV-I 0 W/m 23,2 km/h (4 Bft)
24.12.2013 18:48 12,0 C 9,4 C 83 % 988,6 hPa 0,0 l/m 0 min 2 min 0,0 UV-I 0 W/m 38,6 km/h (5 Bft)
24.12.2013 18:50 12,0 C 9,4 C 83 % 988,1 hPa 0,0 l/m 0 min 2 min 0,0 UV-I 0 W/m 18,0 km/h (3 Bft)
24.12.2013 18:52 12,0 C 9,4 C 83 % 988,3 hPa 0,0 l/m 0 min 2 min 0,0 UV-I 0 W/m 20,6 km/h (4 Bft)
24.12.2013 18:54 12,0 C 8,9 C 83 % 988,2 hPa 0,0 l/m 0 min 2 min 0,0 UV-I 0 W/m 18,0 km/h (3 Bft)
24.12.2013 18:56 12,0 C 8,9 C 84 % 988,2 hPa 0,2 l/m 0 min 2 min 0,0 UV-I 0 W/m 25,7 km/h (4 Bft)
24.12.2013 18:58 11,9 C 8,9 C 84 % 988,1 hPa 0,0 l/m 0 min 2 min 0,0 UV-I 0 W/m 28,3 km/h (4 Bft)
24.12.2013 19:00 11,9 C 8,9 C 84 % 988,1 hPa 0,0 l/m 0 min 2 min 0,0 UV-I 0 W/m 23,2 km/h (4 Bft)
24.12.2013 19:02 11,9 C 8,9 C 83 % 988,1 hPa 0,0 l/m 0 min 2 min 0,0 UV-I 0 W/m 18,0 km/h (3 Bft)
24.12.2013 19:04 11,9 C 9,4 C 84 % 988,2 hPa 0,0 l/m 0 min 2 min 0,0 UV-I 0 W/m 25,7 km/h (4 Bft)
24.12.2013 19:06 11,9 C 9,4 C 84 % 988,1 hPa 0,0 l/m 0 min 2 min 0,0 UV-I 0 W/m 18,0 km/h (3 Bft)
24.12.2013 19:08 11,9 C 9,4 C 83 % 988,0 hPa 0,0 l/m 0 min 2 min 0,0 UV-I 0 W/m 20,6 km/h (4 Bft)
24.12.2013 19:10 11,9 C 9,4 C 83 % 988,1 hPa 0,0 l/m 0 min 2 min 0,0 UV-I 0 W/m 20,6 km/h (4 Bft)
24.12.2013 19:12 11,9 C 9,4 C 84 % 988,0 hPa 0,0 l/m 0 min 2 min 0,0 UV-I 0 W/m 36,0 km/h (5 Bft)
24.12.2013 19:14 11,9 C 9,4 C 83 % 988,0 hPa 0,0 l/m 0 min 2 min 0,0 UV-I 0 W/m 33,5 km/h (5 Bft)
24.12.2013 19:16 11,9 C 9,4 C 83 % 988,0 hPa 0,0 l/m 0 min 2 min 0,0 UV-I 0 W/m 20,6 km/h (4 Bft)
24.12.2013 19:18 11,9 C 9,4 C 83 % 987,9 hPa 0,0 l/m 0 min 2 min 0,0 UV-I 0 W/m 23,2 km/h (4 Bft)
24.12.2013 19:20 11,9 C 9,4 C 83 % 987,8 hPa 0,0 l/m 0 min 2 min 0,0 UV-I 0 W/m 15,4 km/h (3 Bft)
24.12.2013 19:22 11,9 C 9,4 C 83 % 988,1 hPa 0,0 l/m 0 min 2 min 0,0 UV-I 0 W/m 23,2 km/h (4 Bft)
24.12.2013 19:24 11,9 C 9,4 C 83 % 987,8 hPa 0,0 l/m 0 min 2 min 0,0 UV-I 0 W/m 33,5 km/h (5 Bft)
24.12.2013 19:26 11,9 C 9,4 C 83 % 987,8 hPa 0,0 l/m 0 min 2 min 0,0 UV-I 0 W/m 18,0 km/h (3 Bft)
24.12.2013 19:28 12,0 C 9,4 C 83 % 987,8 hPa 0,0 l/m 0 min 0 min 0,0 UV-I 0 W/m 15,4 km/h (3 Bft)
24.12.2013 19:30 12,0 C 9,4 C 83 % 987,9 hPa 0,0 l/m 0 min 2 min 0,0 UV-I 0 W/m 18,0 km/h (3 Bft)
24.12.2013 19:32 12,0 C 9,4 C 83 % 987,9 hPa 0,0 l/m 0 min 2 min 0,0 UV-I 0 W/m 25,7 km/h (4 Bft)
24.12.2013 19:34 12,0 C 9,4 C 83 % 988,1 hPa 0,0 l/m 0 min 2 min 0,0 UV-I 0 W/m 28,3 km/h (4 Bft)
24.12.2013 19:36 12,0 C 9,4 C 83 % 988,1 hPa 0,0 l/m 0 min 2 min 0,0 UV-I 0 W/m 28,3 km/h (4 Bft)
24.12.2013 19:38 12,0 C 9,4 C 83 % 988,1 hPa 0,0 l/m 0 min 2 min 0,0 UV-I 0 W/m 30,9 km/h (5 Bft)
24.12.2013 19:40 12,0 C 10,0 C 83 % 988,2 hPa 0,0 l/m 0 min 2 min 0,0 UV-I 0 W/m 30,9 km/h (5 Bft)
24.12.2013 19:42 12,1 C 10,0 C 83 % 988,2 hPa 0,0 l/m 0 min 2 min 0,0 UV-I 0 W/m 18,0 km/h (3 Bft)
24.12.2013 19:44 12,1 C 10,0 C 83 % 988,4 hPa 0,0 l/m 0 min 2 min 0,0 UV-I 0 W/m 15,4 km/h (3 Bft)
24.12.2013 19:46 12,1 C 10,0 C 83 % 988,3 hPa 0,0 l/m 0 min 0 min 0,0 UV-I 0 W/m 18,0 km/h (3 Bft)
24.12.2013 19:48 12,1 C 10,0 C 83 % 988,3 hPa 0,0 l/m 0 min 0 min 0,0 UV-I 0 W/m 25,7 km/h (4 Bft)
24.12.2013 19:50 12,1 C 10,0 C 83 % 988,4 hPa 0,0 l/m 0 min 2 min 0,0 UV-I 0 W/m 28,3 km/h (4 Bft)
24.12.2013 19:52 12,1 C 10,0 C 83 % 988,3 hPa 0,0 l/m 0 min 2 min 0,0 UV-I 0 W/m 28,3 km/h (4 Bft)
24.12.2013 19:54 12,1 C 10,0 C 83 % 988,2 hPa 0,0 l/m 0 min 2 min 0,0 UV-I 0 W/m 25,7 km/h (4 Bft)
24.12.2013 19:56 12,1 C 10,0 C 83 % 988,4 hPa 0,0 l/m 0 min 2 min 0,0 UV-I 0 W/m 28,3 km/h (4 Bft)
24.12.2013 19:58 12,1 C 10,0 C 83 % 988,3 hPa 0,0 l/m 0 min 2 min 0,0 UV-I 0 W/m 25,7 km/h (4 Bft)
24.12.2013 20:00 12,1 C 10,0 C 82 % 988,2 hPa 0,0 l/m 0 min 2 min 0,0 UV-I 0 W/m 30,9 km/h (5 Bft)
24.12.2013 20:02 12,1 C 10,0 C 82 % 988,2 hPa 0,0 l/m 0 min 2 min 0,0 UV-I 0 W/m 25,7 km/h (4 Bft)
24.12.2013 20:04 12,2 C 10,0 C 82 % 988,2 hPa 0,0 l/m 0 min 2 min 0,0 UV-I 0 W/m 30,9 km/h (5 Bft)
24.12.2013 20:06 12,2 C 10,0 C 82 % 988,2 hPa 0,0 l/m 0 min 0 min 0,0 UV-I 0 W/m 12,9 km/h (3 Bft)
24.12.2013 20:08 12,2 C 10,0 C 82 % 988,2 hPa 0,0 l/m 0 min 0 min 0,0 UV-I 0 W/m 20,6 km/h (4 Bft)
24.12.2013 20:10 12,2 C 10,0 C 82 % 988,3 hPa 0,0 l/m 0 min 0 min 0,0 UV-I 0 W/m 18,0 km/h (3 Bft)
24.12.2013 20:12 12,2 C 10,0 C 82 % 988,3 hPa 0,0 l/m 0 min 0 min 0,0 UV-I 0 W/m 33,5 km/h (5 Bft)
24.12.2013 20:14 12,2 C 10,0 C 82 % 988,2 hPa 0,0 l/m 0 min 0 min 0,0 UV-I 0 W/m 15,4 km/h (3 Bft)
24.12.2013 20:16 12,2 C 10,0 C 82 % 988,4 hPa 0,0 l/m 0 min 0 min 0,0 UV-I 0 W/m 15,4 km/h (3 Bft)
24.12.2013 20:18 12,2 C 10,6 C 82 % 988,3 hPa 0,0 l/m 0 min 2 min 0,0 UV-I 0 W/m 20,6 km/h (4 Bft)
24.12.2013 20:20 12,2 C 10,6 C 82 % 988,5 hPa 0,0 l/m 0 min 2 min 0,0 UV-I 0 W/m 25,7 km/h (4 Bft)
24.12.2013 20:22 12,2 C 10,6 C 82 % 988,3 hPa 0,0 l/m 0 min 2 min 0,0 UV-I 0 W/m 20,6 km/h (4 Bft)
24.12.2013 20:24 12,2 C 10,6 C 82 % 988,3 hPa 0,0 l/m 0 min 0 min 0,0 UV-I 0 W/m 23,2 km/h (4 Bft)
24.12.2013 20:26 12,2 C 10,6 C 82 % 988,2 hPa 0,0 l/m 0 min 2 min 0,0 UV-I 0 W/m 20,6 km/h (4 Bft)
24.12.2013 20:28 12,2 C 10,0 C 82 % 988,4 hPa 0,0 l/m 0 min 2 min 0,0 UV-I 0 W/m 25,7 km/h (4 Bft)
24.12.2013 20:30 12,2 C 10,0 C 82 % 988,3 hPa 0,0 l/m 0 min 2 min 0,0 UV-I 0 W/m 12,9 km/h (3 Bft)
24.12.2013 20:32 12,2 C 10,0 C 82 % 988,4 hPa 0,0 l/m 0 min 2 min 0,0 UV-I 0 W/m 23,2 km/h (4 Bft)
24.12.2013 20:34 12,2 C 10,0 C 82 % 988,4 hPa 0,0 l/m 0 min 2 min 0,0 UV-I 0 W/m 25,7 km/h (4 Bft)
24.12.2013 20:36 12,2 C 10,0 C 82 % 988,4 hPa 0,0 l/m 0 min 2 min 0,0 UV-I 0 W/m 36,0 km/h (5 Bft)
24.12.2013 20:38 12,2 C 9,4 C 83 % 988,5 hPa 0,0 l/m 0 min 2 min 0,0 UV-I 0 W/m 23,2 km/h (4 Bft)
24.12.2013 20:40 12,2 C 9,4 C 83 % 988,6 hPa 0,2 l/m 0 min 2 min 0,0 UV-I 0 W/m 15,4 km/h (3 Bft)
24.12.2013 20:42 12,2 C 8,9 C 83 % 988,9 hPa 0,0 l/m 0 min 2 min 0,0 UV-I 0 W/m 7,7 km/h (2 Bft)
24.12.2013 20:44 12,2 C 8,9 C 84 % 989,0 hPa 0,0 l/m 0 min 2 min 0,0 UV-I 0 W/m 5,1 km/h (1 Bft)
24.12.2013 20:46 12,1 C 8,3 C 84 % 989,0 hPa 0,0 l/m 0 min 2 min 0,0 UV-I 0 W/m 18,0 km/h (3 Bft)
24.12.2013 20:48 11,9 C 7,8 C 83 % 988,9 hPa 0,2 l/m 0 min 2 min 0,0 UV-I 0 W/m 10,3 km/h (2 Bft)
24.12.2013 20:50 11,7 C 7,2 C 83 % 989,3 hPa 0,2 l/m 0 min 2 min 0,0 UV-I 0 W/m 18,0 km/h (3 Bft)
24.12.2013 20:52 11,3 C 7,2 C 83 % 989,7 hPa 0,2 l/m 0 min 2 min 0,0 UV-I 0 W/m 20,6 km/h (4 Bft)
24.12.2013 20:54 11,1 C 6,7 C 83 % 989,1 hPa 0,2 l/m 0 min 2 min 0,0 UV-I 0 W/m 23,2 km/h (4 Bft)
24.12.2013 20:56 10,7 C 6,7 C 83 % 989,6 hPa 0,6 l/m 0 min 2 min 0,0 UV-I 0 W/m 20,6 km/h (4 Bft)
24.12.2013 20:58 10,4 C 6,7 C 84 % 989,3 hPa 0,2 l/m 0 min 2 min 0,0 UV-I 0 W/m 15,4 km/h (3 Bft)
24.12.2013 21:00 10,2 C 6,7 C 84 % 989,0 hPa 0,0 l/m 0 min 2 min 0,0 UV-I 0 W/m 7,7 km/h (2 Bft)
24.12.2013 21:02 10,0 C 6,7 C 85 % 989,8 hPa 0,2 l/m 0 min 2 min 0,0 UV-I 0 W/m 7,7 km/h (2 Bft)
24.12.2013 21:04 9,8 C 6,7 C 85 % 989,5 hPa 0,2 l/m 0 min 2 min 0,0 UV-I 0 W/m 12,9 km/h (3 Bft)
24.12.2013 21:06 9,6 C 6,1 C 85 % 989,5 hPa 0,2 l/m 0 min 2 min 0,0 UV-I 0 W/m 12,9 km/h (3 Bft)
24.12.2013 21:08 9,4 C 6,1 C 86 % 989,7 hPa 0,4 l/m 0 min 2 min 0,0 UV-I 0 W/m 12,9 km/h (3 Bft)
24.12.2013 21:10 9,2 C 6,1 C 87 % 989,4 hPa 0,0 l/m 0 min 2 min 0,0 UV-I 0 W/m 2,6 km/h (1 Bft)
24.12.2013 21:12 9,1 C 6,1 C 87 % 989,4 hPa 0,2 l/m 0 min 2 min 0,0 UV-I 0 W/m 5,1 km/h (1 Bft)
24.12.2013 21:14 9,0 C 6,1 C 87 % 989,6 hPa 0,0 l/m 0 min 2 min 0,0 UV-I 0 W/m 2,6 km/h (1 Bft)
24.12.2013 21:16 8,9 C 6,1 C 88 % 989,6 hPa 0,0 l/m 0 min 2 min 0,0 UV-I 0 W/m 0,0 km/h (0 Bft)
24.12.2013 21:18 8,8 C 6,1 C 88 % 989,6 hPa 0,0 l/m 0 min 2 min 0,0 UV-I 0 W/m 0,0 km/h (0 Bft)
24.12.2013 21:20 8,7 C 6,1 C 88 % 989,5 hPa 0,0 l/m 0 min 2 min 0,0 UV-I 0 W/m 7,7 km/h (2 Bft)
24.12.2013 21:22 8,7 C 6,1 C 89 % 989,5 hPa 0,0 l/m 0 min 2 min 0,0 UV-I 0 W/m 5,1 km/h (1 Bft)
24.12.2013 21:24 8,6 C 6,1 C 89 % 989,4 hPa 0,0 l/m 0 min 2 min 0,0 UV-I 0 W/m 15,4 km/h (3 Bft)
24.12.2013 21:26 8,5 C 6,1 C 89 % 989,5 hPa 0,2 l/m 0 min 2 min 0,0 UV-I 0 W/m 7,7 km/h (2 Bft)
24.12.2013 21:28 8,4 C 6,1 C 89 % 989,6 hPa 0,0 l/m 0 min 2 min 0,0 UV-I 0 W/m 0,0 km/h (0 Bft)
24.12.2013 21:30 8,4 C 6,1 C 90 % 989,6 hPa 0,0 l/m 0 min 2 min 0,0 UV-I 0 W/m 2,6 km/h (1 Bft)
24.12.2013 21:32 8,3 C 6,1 C 90 % 989,6 hPa 0,0 l/m 0 min 2 min 0,0 UV-I 0 W/m 0,0 km/h (0 Bft)
24.12.2013 21:34 8,3 C 6,1 C 90 % 989,5 hPa 0,0 l/m 0 min 2 min 0,0 UV-I 0 W/m 0,0 km/h (0 Bft)
24.12.2013 21:36 8,2 C 6,1 C 90 % 989,5 hPa 0,0 l/m 0 min 2 min 0,0 UV-I 0 W/m 0,0 km/h (0 Bft)
24.12.2013 21:38 8,2 C 6,1 C 90 % 989,5 hPa 0,0 l/m 0 min 2 min 0,0 UV-I 0 W/m 0,0 km/h (0 Bft)
24.12.2013 21:40 8,2 C 6,1 C 91 % 989,4 hPa 0,0 l/m 0 min 2 min 0,0 UV-I 0 W/m 2,6 km/h (1 Bft)
24.12.2013 21:42 8,1 C 6,1 C 91 % 989,4 hPa 0,0 l/m 0 min 2 min 0,0 UV-I 0 W/m 0,0 km/h (0 Bft)
24.12.2013 21:44 8,1 C 6,1 C 91 % 989,3 hPa 0,0 l/m 0 min 2 min 0,0 UV-I 0 W/m 0,0 km/h (0 Bft)
24.12.2013 21:46 8,1 C 6,1 C 91 % 989,3 hPa 0,0 l/m 0 min 0 min 0,0 UV-I 0 W/m 0,0 km/h (0 Bft)
24.12.2013 21:48 8,0 C 6,1 C 91 % 989,4 hPa 0,0 l/m 0 min 0 min 0,0 UV-I 0 W/m 0,0 km/h (0 Bft)
24.12.2013 21:50 8,0 C 6,1 C 91 % 989,2 hPa 0,0 l/m 0 min 0 min 0,0 UV-I 0 W/m 0,0 km/h (0 Bft)
24.12.2013 21:52 8,0 C 6,1 C 91 % 989,2 hPa 0,0 l/m 0 min 0 min 0,0 UV-I 0 W/m 0,0 km/h (0 Bft)
24.12.2013 21:54 7,9 C 6,1 C 92 % 989,2 hPa 0,0 l/m 0 min 0 min 0,0 UV-I 0 W/m 0,0 km/h (0 Bft)
24.12.2013 21:56 7,9 C 6,1 C 92 % 989,2 hPa 0,0 l/m 0 min 0 min 0,0 UV-I 0 W/m 0,0 km/h (0 Bft)
24.12.2013 21:58 7,9 C 6,1 C 92 % 989,3 hPa 0,0 l/m 0 min 0 min 0,0 UV-I 0 W/m 0,0 km/h (0 Bft)
24.12.2013 22:00 7,9 C 6,1 C 92 % 989,1 hPa 0,0 l/m 0 min 0 min 0,0 UV-I 0 W/m 0,0 km/h (0 Bft)
24.12.2013 22:02 7,9 C 6,1 C 92 % 989,1 hPa 0,2 l/m 0 min 0 min 0,0 UV-I 0 W/m 0,0 km/h (0 Bft)
24.12.2013 22:04 7,9 C 6,1 C 92 % 989,1 hPa 0,0 l/m 0 min 0 min 0,0 UV-I 0 W/m 0,0 km/h (0 Bft)
24.12.2013 22:06 7,8 C 6,1 C 92 % 989,0 hPa 0,0 l/m 0 min 0 min 0,0 UV-I 0 W/m 0,0 km/h (0 Bft)
24.12.2013 22:08 7,8 C 6,1 C 92 % 989,0 hPa 0,0 l/m 0 min 0 min 0,0 UV-I 0 W/m 0,0 km/h (0 Bft)
24.12.2013 22:10 7,8 C 6,1 C 92 % 989,0 hPa 0,0 l/m 0 min 0 min 0,0 UV-I 0 W/m 0,0 km/h (0 Bft)
24.12.2013 22:12 7,8 C 6,1 C 92 % 989,0 hPa 0,0 l/m 0 min 0 min 0,0 UV-I 0 W/m 0,0 km/h (0 Bft)
24.12.2013 22:14 7,8 C 6,1 C 92 % 989,0 hPa 0,0 l/m 0 min 0 min 0,0 UV-I 0 W/m 0,0 km/h (0 Bft)
24.12.2013 22:16 7,8 C 6,1 C 92 % 989,0 hPa 0,0 l/m 0 min 0 min 0,0 UV-I 0 W/m 0,0 km/h (0 Bft)
24.12.2013 22:18 7,8 C 6,1 C 93 % 988,9 hPa 0,0 l/m 0 min 0 min 0,0 UV-I 0 W/m 0,0 km/h (0 Bft)
24.12.2013 22:20 7,8 C 6,1 C 93 % 988,8 hPa 0,0 l/m 0 min 0 min 0,0 UV-I 0 W/m 0,0 km/h (0 Bft)
24.12.2013 22:22 7,7 C 6,1 C 93 % 988,8 hPa 0,0 l/m 0 min 0 min 0,0 UV-I 0 W/m 0,0 km/h (0 Bft)
24.12.2013 22:24 7,7 C 6,1 C 93 % 988,8 hPa 0,0 l/m 0 min 0 min 0,0 UV-I 0 W/m 2,6 km/h (1 Bft)
24.12.2013 22:26 7,7 C 6,1 C 93 % 988,8 hPa 0,0 l/m 0 min 0 min 0,0 UV-I 0 W/m 2,6 km/h (1 Bft)
24.12.2013 22:28 7,7 C 6,1 C 93 % 988,6 hPa 0,0 l/m 0 min 0 min 0,0 UV-I 0 W/m 0,0 km/h (0 Bft)
24.12.2013 22:30 7,7 C 6,1 C 93 % 988,5 hPa 0,0 l/m 0 min 0 min 0,0 UV-I 0 W/m 0,0 km/h (0 Bft)
24.12.2013 22:32 7,7 C 6,1 C 93 % 988,4 hPa 0,0 l/m 0 min 0 min 0,0 UV-I 0 W/m 0,0 km/h (0 Bft)
24.12.2013 22:34 7,7 C 6,1 C 93 % 988,4 hPa 0,0 l/m 0 min 2 min 0,0 UV-I 0 W/m 0,0 km/h (0 Bft)
24.12.2013 22:36 7,7 C 6,1 C 93 % 988,4 hPa 0,0 l/m 0 min 0 min 0,0 UV-I 0 W/m 0,0 km/h (0 Bft)
24.12.2013 22:38 7,7 C 6,1 C 93 % 988,4 hPa 0,0 l/m 0 min 2 min 0,0 UV-I 0 W/m 2,6 km/h (1 Bft)
24.12.2013 22:40 7,7 C 6,1 C 93 % 988,4 hPa 0,0 l/m 0 min 0 min 0,0 UV-I 0 W/m 0,0 km/h (0 Bft)
24.12.2013 22:42 7,7 C 6,1 C 93 % 988,3 hPa 0,0 l/m 0 min 0 min 0,0 UV-I 0 W/m 0,0 km/h (0 Bft)
24.12.2013 22:44 7,6 C 6,1 C 94 % 988,4 hPa 0,0 l/m 0 min 0 min 0,0 UV-I 0 W/m 2,6 km/h (1 Bft)
24.12.2013 22:46 7,6 C 6,1 C 94 % 988,4 hPa 0,0 l/m 0 min 0 min 0,0 UV-I 0 W/m 2,6 km/h (1 Bft)
24.12.2013 22:48 7,6 C 6,1 C 94 % 988,4 hPa 0,0 l/m 0 min 2 min 0,0 UV-I 0 W/m 0,0 km/h (0 Bft)
24.12.2013 22:50 7,6 C 6,1 C 94 % 988,3 hPa 0,0 l/m 0 min 2 min 0,0 UV-I 0 W/m 0,0 km/h (0 Bft)
24.12.2013 22:52 7,6 C 6,1 C 94 % 988,3 hPa 0,0 l/m 0 min 2 min 0,0 UV-I 0 W/m 7,7 km/h (2 Bft)
24.12.2013 22:54 7,6 C 6,1 C 94 % 988,3 hPa 0,0 l/m 0 min 2 min 0,0 UV-I 0 W/m 2,6 km/h (1 Bft)
24.12.2013 22:56 7,6 C 6,1 C 94 % 988,3 hPa 0,0 l/m 0 min 2 min 0,0 UV-I 0 W/m 2,6 km/h (1 Bft)
24.12.2013 22:58 7,6 C 6,1 C 94 % 988,3 hPa 0,0 l/m 0 min 0 min 0,0 UV-I 0 W/m 5,1 km/h (1 Bft)
24.12.2013 23:00 7,6 C 6,1 C 94 % 988,2 hPa 0,0 l/m 0 min 0 min 0,0 UV-I 0 W/m 0,0 km/h (0 Bft)
24.12.2013 23:02 7,6 C 6,1 C 94 % 988,2 hPa 0,0 l/m 0 min 2 min 0,0 UV-I 0 W/m 0,0 km/h (0 Bft)
24.12.2013 23:04 7,6 C 6,1 C 94 % 988,2 hPa 0,0 l/m 0 min 2 min 0,0 UV-I 0 W/m 2,6 km/h (1 Bft)
24.12.2013 23:06 7,6 C 6,1 C 94 % 988,2 hPa 0,0 l/m 0 min 0 min 0,0 UV-I 0 W/m 7,7 km/h (2 Bft)
24.12.2013 23:08 7,5 C 6,1 C 94 % 988,2 hPa 0,0 l/m 0 min 2 min 0,0 UV-I 0 W/m 7,7 km/h (2 Bft)
24.12.2013 23:10 7,5 C 6,1 C 94 % 988,2 hPa 0,0 l/m 0 min 2 min 0,0 UV-I 0 W/m 7,7 km/h (2 Bft)
24.12.2013 23:12 7,5 C 6,1 C 94 % 988,2 hPa 0,0 l/m 0 min 2 min 0,0 UV-I 0 W/m 7,7 km/h (2 Bft)
24.12.2013 23:14 7,5 C 6,1 C 94 % 988,1 hPa 0,0 l/m 0 min 2 min 0,0 UV-I 0 W/m 10,3 km/h (2 Bft)
24.12.2013 23:16 7,5 C 6,1 C 94 % 988,1 hPa 0,0 l/m 0 min 2 min 0,0 UV-I 0 W/m 7,7 km/h (2 Bft)
24.12.2013 23:18 7,4 C 6,1 C 95 % 988,1 hPa 0,0 l/m 0 min 2 min 0,0 UV-I 0 W/m 10,3 km/h (2 Bft)
24.12.2013 23:20 7,4 C 6,1 C 95 % 988,2 hPa 0,0 l/m 0 min 2 min 0,0 UV-I 0 W/m 5,1 km/h (1 Bft)
24.12.2013 23:22 7,4 C 6,1 C 95 % 988,1 hPa 0,0 l/m 0 min 2 min 0,0 UV-I 0 W/m 7,7 km/h (2 Bft)
24.12.2013 23:24 7,4 C 6,1 C 95 % 988,1 hPa 0,2 l/m 0 min 2 min 0,0 UV-I 0 W/m 5,1 km/h (1 Bft)
24.12.2013 23:26 7,4 C 6,1 C 95 % 988,0 hPa 0,0 l/m 0 min 2 min 0,0 UV-I 0 W/m 0,0 km/h (0 Bft)
24.12.2013 23:28 7,4 C 6,1 C 95 % 987,8 hPa 0,0 l/m 0 min 2 min 0,0 UV-I 0 W/m 10,3 km/h (2 Bft)
24.12.2013 23:30 7,4 C 6,1 C 95 % 987,8 hPa 0,0 l/m 0 min 2 min 0,0 UV-I 0 W/m 7,7 km/h (2 Bft)
24.12.2013 23:32 7,4 C 6,1 C 95 % 987,8 hPa 0,0 l/m 0 min 2 min 0,0 UV-I 0 W/m 7,7 km/h (2 Bft)
24.12.2013 23:34 7,4 C 6,1 C 95 % 987,8 hPa 0,2 l/m 0 min 2 min 0,0 UV-I 0 W/m 7,7 km/h (2 Bft)
24.12.2013 23:36 7,4 C 6,1 C 95 % 987,7 hPa 0,0 l/m 0 min 2 min 0,0 UV-I 0 W/m 12,9 km/h (3 Bft)
24.12.2013 23:38 7,4 C 6,1 C 95 % 987,7 hPa 0,0 l/m 0 min 2 min 0,0 UV-I 0 W/m 0,0 km/h (0 Bft)
24.12.2013 23:40 7,3 C 6,1 C 95 % 987,8 hPa 0,0 l/m 0 min 2 min 0,0 UV-I 0 W/m 7,7 km/h (2 Bft)
24.12.2013 23:42 7,3 C 6,1 C 95 % 987,7 hPa 0,0 l/m 0 min 2 min 0,0 UV-I 0 W/m 7,7 km/h (2 Bft)
24.12.2013 23:44 7,3 C 6,1 C 95 % 987,8 hPa 0,0 l/m 0 min 2 min 0,0 UV-I 0 W/m 0,0 km/h (0 Bft)
24.12.2013 23:46 7,3 C 6,1 C 95 % 987,7 hPa 0,2 l/m 0 min 2 min 0,0 UV-I 0 W/m 10,3 km/h (2 Bft)
24.12.2013 23:48 7,3 C 6,1 C 95 % 987,7 hPa 0,0 l/m 0 min 2 min 0,0 UV-I 0 W/m 7,7 km/h (2 Bft)
24.12.2013 23:50 7,3 C 6,1 C 95 % 987,6 hPa 0,0 l/m 0 min 2 min 0,0 UV-I 0 W/m 7,7 km/h (2 Bft)
24.12.2013 23:52 7,3 C 6,1 C 95 % 987,6 hPa 0,0 l/m 0 min 2 min 0,0 UV-I 0 W/m 0,0 km/h (0 Bft)
24.12.2013 23:54 7,3 C 6,1 C 95 % 987,6 hPa 0,2 l/m 0 min 2 min 0,0 UV-I 0 W/m 0,0 km/h (0 Bft)
24.12.2013 23:56 7,3 C 6,1 C 95 % 987,6 hPa 0,0 l/m 0 min 2 min 0,0 UV-I 0 W/m 7,7 km/h (2 Bft)
24.12.2013 23:58 7,3 C 6,1 C 95 % 987,5 hPa 0,0 l/m 0 min 2 min 0,0 UV-I 0 W/m 10,3 km/h (2 Bft)
_ Min-Zeit 23:40 21:06 05:46 23:58 - - - - - 21:16
Minimum _ 7,3 C 6,1 C 65 % 987,5 hPa - - - - - 0,0 km/h (0 Bft)
_ Max-Zeit 16:22 14:32 23:18 00:00 20:56 00:00 00:14 00:00 11:22 07:06
Maximum _ 12,9 C 11,1 C 95 % 999,3 hPa 0,6 l/m 0 min 2 min 0,0 UV-I 53 W/m 64,4 km/h
SO (8 Bft)
Durchschnitt _ 11,3 C 9,2 C 78 % 991,8 hPa #5,6 l/m #0 min. #13:06 h 0,0 UV-I 29 W/m 27,7 km/h (4 Bft)
© 2013 W. Hausmann